Time,TemperatureF,DewpointF,PressureIn,WindDirection,WindDirectionDegrees,WindSpeedMPH,WindSpeedGustMPH,Humidity,HourlyPrecipIn,Conditions,Clouds,dailyrainin,SoftwareType,DateUTC
2013-05-14 00:00:00,65.3,37.6,29.59,North,0,0.0,0.0,36,0.00,,,0.00,WUHU216DAVISVP2,2013-05-14 05:00:00,
2013-05-14 00:02:00,65.3,38.2,29.59,North,9,0.0,0.0,37,0.00,,,0.00,WUHU216DAVISVP2,2013-05-14 05:02:00,
2013-05-14 00:05:00,65.2,38.3,29.59,North,0,0.0,0.0,37,0.00,,,0.00,WUHU216DAVISVP2,2013-05-14 05:05:00,
2013-05-14 00:07:00,65.1,38.0,29.59,North,9,0.0,0.0,37,0.00,,,0.00,WUHU216DAVISVP2,2013-05-14 05:07:00,
2013-05-14 00:10:00,65.1,38.2,29.59,North,0,0.0,0.0,37,0.00,,,0.00,WUHU216DAVISVP2,2013-05-14 05:10:00,
2013-05-14 00:12:00,65.1,38.0,29.59,North,9,0.0,0.0,37,0.00,,,0.00,WUHU216DAVISVP2,2013-05-14 05:12:00,
2013-05-14 00:15:00,65.1,38.2,29.59,North,0,0.0,0.0,37,0.00,,,0.00,WUHU216DAVISVP2,2013-05-14 05:15:00,
2013-05-14 00:17:00,65.1,38.0,29.58,North,9,0.0,0.0,37,0.00,,,0.00,WUHU216DAVISVP2,2013-05-14 05:17:00,
2013-05-14 00:20:00,65.1,38.2,29.59,North,0,0.0,0.0,37,0.00,,,0.00,WUHU216DAVISVP2,2013-05-14 05:20:00,
2013-05-14 00:22:00,65.1,38.0,29.59,North,9,0.0,0.0,37,0.00,,,0.00,WUHU216DAVISVP2,2013-05-14 05:22:00,
2013-05-14 00:25:00,65.0,38.1,29.58,North,0,0.0,0.0,37,0.00,,,0.00,WUHU216DAVISVP2,2013-05-14 05:25:00,
2013-05-14 00:27:00,65.0,37.9,29.59,North,9,0.0,0.0,37,0.00,,,0.00,WUHU216DAVISVP2,2013-05-14 05:27:00,
2013-05-14 00:30:00,65.0,38.8,29.58,North,0,0.0,0.0,38,0.00,,,0.00,WUHU216DAVISVP2,2013-05-14 05:30:00,
2013-05-14 00:32:00,65.0,38.6,29.58,North,9,0.0,0.0,38,0.00,,,0.00,WUHU216DAVISVP2,2013-05-14 05:32:00,
2013-05-14 00:35:00,65.0,38.8,29.58,North,0,0.0,0.0,38,0.00,,,0.00,WUHU216DAVISVP2,2013-05-14 05:35:00,
2013-05-14 00:37:00,65.0,38.6,29.58,North,9,0.0,0.0,38,0.00,,,0.00,WUHU216DAVISVP2,2013-05-14 05:37:00,
2013-05-14 00:40:00,64.7,38.5,29.58,North,0,0.0,0.0,38,0.00,,,0.00,WUHU216DAVISVP2,2013-05-14 05:40:00,
2013-05-14 00:42:00,64.6,38.2,29.58,North,9,0.0,0.0,38,0.00,,,0.00,WUHU216DAVISVP2,2013-05-14 05:42:00,
2013-05-14 00:45:00,64.4,38.2,29.58,North,0,0.0,0.0,38,0.00,,,0.00,WUHU216DAVISVP2,2013-05-14 05:45:00,
2013-05-14 00:47:00,64.4,38.1,29.58,North,9,0.0,0.0,38,0.00,,,0.00,WUHU216DAVISVP2,2013-05-14 05:47:00,
2013-05-14 00:50:00,64.2,38.0,29.58,North,0,0.0,0.0,38,0.00,,,0.00,WUHU216DAVISVP2,2013-05-14 05:50:00,
2013-05-14 00:52:00,64.1,37.8,29.58,North,9,0.0,0.0,38,0.00,,,0.00,WUHU216DAVISVP2,2013-05-14 05:52:00,
2013-05-14 00:55:00,63.9,37.8,29.58,North,0,0.0,0.0,38,0.00,,,0.00,WUHU216DAVISVP2,2013-05-14 05:55:00,
2013-05-14 00:57:00,63.9,37.6,29.58,North,9,0.0,0.0,38,0.00,,,0.00,WUHU216DAVISVP2,2013-05-14 05:57:00,
2013-05-14 01:00:00,63.8,37.7,29.58,North,0,0.0,0.0,38,0.00,,,0.00,WUHU216DAVISVP2,2013-05-14 06:00:00,
2013-05-14 01:02:00,63.8,37.5,29.58,North,9,0.0,0.0,38,0.00,,,0.00,WUHU216DAVISVP2,2013-05-14 06:02:00,
2013-05-14 01:05:00,63.9,37.8,29.58,North,0,0.0,0.0,38,0.00,,,0.00,WUHU216DAVISVP2,2013-05-14 06:05:00,
2013-05-14 01:07:00,63.9,36.9,29.58,North,9,0.0,0.0,37,0.00,,,0.00,WUHU216DAVISVP2,2013-05-14 06:07:00,
2013-05-14 01:10:00,64.0,37.9,29.58,North,0,0.0,0.0,38,0.00,,,0.00,WUHU216DAVISVP2,2013-05-14 06:10:00,
2013-05-14 01:12:00,64.0,37.0,29.58,North,9,0.0,0.0,37,0.00,,,0.00,WUHU216DAVISVP2,2013-05-14 06:12:00,
2013-05-14 01:15:00,64.0,37.2,29.58,North,0,0.0,0.0,37,0.00,,,0.00,WUHU216DAVISVP2,2013-05-14 06:15:00,
2013-05-14 01:17:00,64.0,37.0,29.58,North,9,0.0,0.0,37,0.00,,,0.00,WUHU216DAVISVP2,2013-05-14 06:17:00,
2013-05-14 01:20:00,63.9,37.8,29.58,North,0,0.0,0.0,38,0.00,,,0.00,WUHU216DAVISVP2,2013-05-14 06:20:00,
2013-05-14 01:22:00,63.8,37.5,29.58,North,9,0.0,0.0,38,0.00,,,0.00,WUHU216DAVISVP2,2013-05-14 06:22:00,
2013-05-14 01:25:00,63.5,37.4,29.57,North,0,0.0,0.0,38,0.00,,,0.00,WUHU216DAVISVP2,2013-05-14 06:25:00,
2013-05-14 01:27:00,63.4,37.8,29.57,North,9,0.0,0.0,39,0.00,,,0.00,WUHU216DAVISVP2,2013-05-14 06:27:00,
2013-05-14 01:30:00,63.1,37.7,29.57,North,0,0.0,0.0,39,0.00,,,0.00,WUHU216DAVISVP2,2013-05-14 06:30:00,
2013-05-14 01:32:00,63.0,37.5,29.57,North,9,0.0,0.0,39,0.00,,,0.00,WUHU216DAVISVP2,2013-05-14 06:32:00,
2013-05-14 01:35:00,62.7,37.4,29.57,North,0,0.0,0.0,39,0.00,,,0.00,WUHU216DAVISVP2,2013-05-14 06:35:00,
2013-05-14 01:37:00,62.7,37.2,29.57,North,9,0.0,0.0,39,0.00,,,0.00,WUHU216DAVISVP2,2013-05-14 06:37:00,
2013-05-14 01:40:00,62.4,37.7,29.57,North,0,0.0,0.0,40,0.00,,,0.00,WUHU216DAVISVP2,2013-05-14 06:40:00,
2013-05-14 01:42:00,62.3,37.5,29.57,North,9,0.0,0.0,40,0.00,,,0.00,WUHU216DAVISVP2,2013-05-14 06:42:00,
2013-05-14 01:45:00,62.1,37.5,29.57,North,0,0.0,0.0,40,0.00,,,0.00,WUHU216DAVISVP2,2013-05-14 06:45:00,
2013-05-14 01:47:00,62.0,37.2,29.57,North,9,0.0,0.0,40,0.00,,,0.00,WUHU216DAVISVP2,2013-05-14 06:47:00,
2013-05-14 01:50:00,61.9,37.3,29.57,North,0,0.0,0.0,40,0.00,,,0.00,WUHU216DAVISVP2,2013-05-14 06:50:00,
2013-05-14 01:52:00,61.8,37.1,29.57,North,9,0.0,0.0,40,0.00,,,0.00,WUHU216DAVISVP2,2013-05-14 06:52:00,
2013-05-14 01:55:00,61.9,37.3,29.57,North,0,0.0,0.0,40,0.00,,,0.00,WUHU216DAVISVP2,2013-05-14 06:55:00,
2013-05-14 01:57:00,62.0,37.2,29.57,North,9,0.0,0.0,40,0.00,,,0.00,WUHU216DAVISVP2,2013-05-14 06:57:00,
2013-05-14 02:00:00,62.2,37.6,29.56,North,0,0.0,1.0,40,0.00,,,0.00,WUHU216DAVISVP2,2013-05-14 07:00:00,
2013-05-14 02:02:00,62.2,37.4,29.56,North,9,0.0,1.0,40,0.00,,,0.00,WUHU216DAVISVP2,2013-05-14 07:02:00,
2013-05-14 02:05:00,62.5,37.8,29.56,North,0,0.0,1.0,40,0.00,,,0.00,WUHU216DAVISVP2,2013-05-14 07:05:00,
2013-05-14 02:07:00,62.6,37.8,29.56,North,9,0.0,1.0,40,0.00,,,0.00,WUHU216DAVISVP2,2013-05-14 07:07:00,
2013-05-14 02:10:00,62.8,37.5,29.56,North,0,0.0,4.0,39,0.00,,,0.00,WUHU216DAVISVP2,2013-05-14 07:10:00,
2013-05-14 02:12:00,62.9,37.4,29.56,North,9,1.0,4.0,39,0.00,,,0.00,WUHU216DAVISVP2,2013-05-14 07:12:00,
2013-05-14 02:15:00,63.1,37.7,29.56,North,0,1.0,4.0,39,0.00,,,0.00,WUHU216DAVISVP2,2013-05-14 07:15:00,
2013-05-14 02:17:00,63.2,37.7,29.56,North,9,0.0,4.0,39,0.00,,,0.00,WUHU216DAVISVP2,2013-05-14 07:17:00,
2013-05-14 02:20:00,63.4,38.0,29.56,North,0,0.0,4.0,39,0.00,,,0.00,WUHU216DAVISVP2,2013-05-14 07:20:00,
2013-05-14 02:22:00,63.4,37.8,29.55,North,5,0.0,3.0,39,0.00,,,0.00,WUHU216DAVISVP2,2013-05-14 07:22:00,
2013-05-14 02:25:00,63.4,38.0,29.55,SE,135,0.0,4.0,39,0.00,,,0.00,WUHU216DAVISVP2,2013-05-14 07:25:00,
2013-05-14 02:27:00,63.5,37.9,29.55,SE,132,0.0,2.0,39,0.00,,,0.00,WUHU216DAVISVP2,2013-05-14 07:27:00,
2013-05-14 02:30:00,63.6,38.2,29.55,SE,135,1.0,4.0,39,0.00,,,0.00,WUHU216DAVISVP2,2013-05-14 07:30:00,
2013-05-14 02:32:00,63.7,38.1,29.55,SE,146,0.0,4.0,39,0.00,,,0.00,WUHU216DAVISVP2,2013-05-14 07:32:00,
2013-05-14 02:35:00,63.8,38.4,29.55,SE,135,0.0,4.0,39,0.00,,,0.00,WUHU216DAVISVP2,2013-05-14 07:35:00,
2013-05-14 02:37:00,63.9,38.3,29.55,SE,146,0.0,4.0,39,0.00,,,0.00,WUHU216DAVISVP2,2013-05-14 07:37:00,
2013-05-14 02:40:00,63.9,38.4,29.55,North,0,0.0,4.0,39,0.00,,,0.00,WUHU216DAVISVP2,2013-05-14 07:40:00,
2013-05-14 02:42:00,63.8,38.2,29.55,SSE,147,0.0,2.0,39,0.00,,,0.00,WUHU216DAVISVP2,2013-05-14 07:42:00,
2013-05-14 02:45:00,63.7,38.3,29.55,North,0,0.0,2.0,39,0.00,,,0.00,WUHU216DAVISVP2,2013-05-14 07:45:00,
2013-05-14 02:47:00,63.6,38.0,29.55,SSE,147,0.0,0.0,39,0.00,,,0.00,WUHU216DAVISVP2,2013-05-14 07:47:00,
2013-05-14 02:50:00,63.5,38.1,29.55,North,0,0.0,0.0,39,0.00,,,0.00,WUHU216DAVISVP2,2013-05-14 07:50:00,
2013-05-14 02:52:00,63.5,37.9,29.55,SSE,147,0.0,0.0,39,0.00,,,0.00,WUHU216DAVISVP2,2013-05-14 07:52:00,
2013-05-14 02:55:00,63.3,38.6,29.55,North,0,0.0,0.0,40,0.00,,,0.00,WUHU216DAVISVP2,2013-05-14 07:55:00,
2013-05-14 02:57:00,63.3,38.4,29.55,SE,146,0.0,0.0,40,0.00,,,0.00,WUHU216DAVISVP2,2013-05-14 07:57:00,
2013-05-14 03:00:00,63.1,38.4,29.55,North,0,0.0,0.0,40,0.00,,,0.00,WUHU216DAVISVP2,2013-05-14 08:00:00,
2013-05-14 03:02:00,63.1,38.2,29.55,SE,146,0.0,0.0,40,0.00,,,0.00,WUHU216DAVISVP2,2013-05-14 08:02:00,
2013-05-14 03:05:00,63.1,38.4,29.55,North,0,0.0,0.0,40,0.00,,,0.00,WUHU216DAVISVP2,2013-05-14 08:05:00,
2013-05-14 03:07:00,63.1,38.2,29.55,SE,146,1.0,2.0,40,0.00,,,0.00,WUHU216DAVISVP2,2013-05-14 08:07:00,
2013-05-14 03:10:00,63.2,38.5,29.55,SSE,158,1.0,3.0,40,0.00,,,0.00,WUHU216DAVISVP2,2013-05-14 08:10:00,
2013-05-14 03:12:00,63.3,38.4,29.55,SSE,147,0.0,3.0,40,0.00,,,0.00,WUHU216DAVISVP2,2013-05-14 08:12:00,
2013-05-14 03:15:00,63.4,38.6,29.54,SSE,158,0.0,3.0,40,0.00,,,0.00,WUHU216DAVISVP2,2013-05-14 08:15:00,
2013-05-14 03:17:00,63.4,39.2,29.54,SSE,147,0.0,3.0,41,0.00,,,0.00,WUHU216DAVISVP2,2013-05-14 08:17:00,
2013-05-14 03:20:00,63.4,39.3,29.54,North,0,0.0,3.0,41,0.00,,,0.00,WUHU216DAVISVP2,2013-05-14 08:20:00,
2013-05-14 03:22:00,63.4,39.2,29.54,SSE,147,0.0,2.0,41,0.00,,,0.00,WUHU216DAVISVP2,2013-05-14 08:22:00,
2013-05-14 03:25:00,63.3,39.2,29.54,SSE,158,0.0,2.0,41,0.00,,,0.00,WUHU216DAVISVP2,2013-05-14 08:25:00,
2013-05-14 03:27:00,63.3,39.1,29.54,SSE,148,2.0,3.0,41,0.00,,,0.00,WUHU216DAVISVP2,2013-05-14 08:27:00,
2013-05-14 03:30:00,63.2,39.7,29.54,SSE,158,0.0,3.0,42,0.00,,,0.00,WUHU216DAVISVP2,2013-05-14 08:30:00,
2013-05-14 03:32:00,63.2,39.6,29.54,SSE,148,0.0,3.0,42,0.00,,,0.00,WUHU216DAVISVP2,2013-05-14 08:32:00,
2013-05-14 03:35:00,63.1,39.6,29.54,SSE,158,0.0,3.0,42,0.00,,,0.00,WUHU216DAVISVP2,2013-05-14 08:35:00,
2013-05-14 03:37:00,63.1,39.5,29.54,SSE,149,0.0,2.0,42,0.00,,,0.00,WUHU216DAVISVP2,2013-05-14 08:37:00,
2013-05-14 03:40:00,63.1,39.6,29.53,SSE,158,0.0,3.0,42,0.00,,,0.00,WUHU216DAVISVP2,2013-05-14 08:40:00,
2013-05-14 03:42:00,63.0,40.0,29.53,SSE,149,0.0,2.0,43,0.00,,,0.00,WUHU216DAVISVP2,2013-05-14 08:42:00,
2013-05-14 03:45:00,62.9,39.4,29.53,North,0,0.0,2.0,42,0.00,,,0.00,WUHU216DAVISVP2,2013-05-14 08:45:00,
2013-05-14 03:47:00,62.9,39.3,29.53,SSE,149,0.0,0.0,42,0.00,,,0.00,WUHU216DAVISVP2,2013-05-14 08:47:00,
2013-05-14 03:50:00,62.8,39.4,29.53,North,0,0.0,2.0,42,0.00,,,0.00,WUHU216DAVISVP2,2013-05-14 08:50:00,
2013-05-14 03:52:00,62.8,39.2,29.53,SSE,149,0.0,0.0,42,0.00,,,0.00,WUHU216DAVISVP2,2013-05-14 08:52:00,
2013-05-14 03:55:00,62.7,39.9,29.53,North,0,0.0,0.0,43,0.00,,,0.00,WUHU216DAVISVP2,2013-05-14 08:55:00,
2013-05-14 03:57:00,62.7,39.8,29.53,SSE,149,0.0,0.0,43,0.00,,,0.00,WUHU216DAVISVP2,2013-05-14 08:57:00,
2013-05-14 04:00:00,62.7,39.9,29.53,North,0,0.0,0.0,43,0.00,,,0.00,WUHU216DAVISVP2,2013-05-14 09:00:00,
2013-05-14 04:02:00,62.7,39.8,29.53,SSE,149,0.0,0.0,43,0.00,,,0.00,WUHU216DAVISVP2,2013-05-14 09:02:00,
2013-05-14 04:05:00,62.8,40.0,29.53,SSE,158,0.0,2.0,43,0.00,,,0.00,WUHU216DAVISVP2,2013-05-14 09:05:00,
2013-05-14 04:07:00,62.8,39.9,29.53,SSE,150,0.0,2.0,43,0.00,,,0.00,WUHU216DAVISVP2,2013-05-14 09:07:00,
2013-05-14 04:10:00,62.8,40.0,29.53,SSE,158,0.0,2.0,43,0.00,,,0.00,WUHU216DAVISVP2,2013-05-14 09:10:00,
2013-05-14 04:12:00,62.8,39.9,29.53,SSE,149,0.0,2.0,43,0.00,,,0.00,WUHU216DAVISVP2,2013-05-14 09:12:00,
2013-05-14 04:15:00,62.7,39.9,29.53,North,0,0.0,2.0,43,0.00,,,0.00,WUHU216DAVISVP2,2013-05-14 09:15:00,
2013-05-14 04:17:00,62.7,39.8,29.53,SSE,150,0.0,0.0,43,0.00,,,0.00,WUHU216DAVISVP2,2013-05-14 09:17:00,
2013-05-14 04:20:00,62.6,40.4,29.52,SSE,158,0.0,2.0,44,0.00,,,0.00,WUHU216DAVISVP2,2013-05-14 09:20:00,
2013-05-14 04:22:00,62.5,40.2,29.52,SSE,149,0.0,2.0,44,0.00,,,0.00,WUHU216DAVISVP2,2013-05-14 09:22:00,
2013-05-14 04:25:00,62.5,40.3,29.52,North,0,0.0,2.0,44,0.00,,,0.00,WUHU216DAVISVP2,2013-05-14 09:25:00,
2013-05-14 04:27:00,62.4,40.1,29.52,SSE,149,0.0,2.0,44,0.00,,,0.00,WUHU216DAVISVP2,2013-05-14 09:27:00,
2013-05-14 04:30:00,62.3,40.1,29.52,North,0,0.0,2.0,44,0.00,,,0.00,WUHU216DAVISVP2,2013-05-14 09:30:00,
2013-05-14 04:32:00,62.3,40.0,29.52,SSE,149,0.0,0.0,44,0.00,,,0.00,WUHU216DAVISVP2,2013-05-14 09:32:00,
2013-05-14 04:35:00,62.1,40.5,29.52,North,0,0.0,0.0,45,0.00,,,0.00,WUHU216DAVISVP2,2013-05-14 09:35:00,
2013-05-14 04:37:00,62.1,40.4,29.53,SSE,149,0.0,0.0,45,0.00,,,0.00,WUHU216DAVISVP2,2013-05-14 09:37:00,
2013-05-14 04:40:00,62.0,40.4,29.53,North,0,0.0,0.0,45,0.00,,,0.00,WUHU216DAVISVP2,2013-05-14 09:40:00,
2013-05-14 04:42:00,61.9,40.3,29.53,SSE,149,0.0,0.0,45,0.00,,,0.00,WUHU216DAVISVP2,2013-05-14 09:42:00,
2013-05-14 04:45:00,61.7,40.1,29.52,North,0,0.0,0.0,45,0.00,,,0.00,WUHU216DAVISVP2,2013-05-14 09:45:00,
2013-05-14 04:47:00,61.7,40.1,29.52,SSE,149,2.0,2.0,45,0.00,,,0.00,WUHU216DAVISVP2,2013-05-14 09:47:00,
2013-05-14 04:50:00,61.6,40.0,29.51,SSE,158,1.0,4.0,45,0.00,,,0.00,WUHU216DAVISVP2,2013-05-14 09:50:00,
2013-05-14 04:52:00,61.6,40.0,29.51,SE,145,0.0,4.0,45,0.00,,,0.00,WUHU216DAVISVP2,2013-05-14 09:52:00,
2013-05-14 04:55:00,61.7,40.1,29.51,SSE,158,0.0,4.0,45,0.00,,,0.00,WUHU216DAVISVP2,2013-05-14 09:55:00,
2013-05-14 04:57:00,61.7,40.1,29.51,SSE,164,0.0,4.0,45,0.00,,,0.00,WUHU216DAVISVP2,2013-05-14 09:57:00,
2013-05-14 05:00:00,61.7,40.1,29.51,South,180,0.0,4.0,45,0.00,,,0.00,WUHU216DAVISVP2,2013-05-14 10:00:00,
2013-05-14 05:02:00,61.7,40.1,29.51,SSE,168,0.0,3.0,45,0.00,,,0.00,WUHU216DAVISVP2,2013-05-14 10:02:00,
2013-05-14 05:05:00,61.6,40.0,29.51,North,0,0.0,4.0,45,0.00,,,0.00,WUHU216DAVISVP2,2013-05-14 10:05:00,
2013-05-14 05:07:00,61.6,40.6,29.51,SSE,168,0.0,3.0,46,0.00,,,0.00,WUHU216DAVISVP2,2013-05-14 10:07:00,
2013-05-14 05:10:00,61.6,40.6,29.51,South,180,0.0,3.0,46,0.00,,,0.00,WUHU216DAVISVP2,2013-05-14 10:10:00,
2013-05-14 05:12:00,61.6,40.6,29.51,South,169,0.0,1.0,46,0.00,,,0.00,WUHU216DAVISVP2,2013-05-14 10:12:00,
2013-05-14 05:15:00,61.4,40.4,29.51,North,0,0.0,1.0,46,0.00,,,0.00,WUHU216DAVISVP2,2013-05-14 10:15:00,
2013-05-14 05:17:00,61.4,40.4,29.51,South,172,2.0,4.0,46,0.00,,,0.00,WUHU216DAVISVP2,2013-05-14 10:17:00,
2013-05-14 05:20:00,61.3,40.9,29.50,South,180,1.0,5.0,47,0.00,,,0.00,WUHU216DAVISVP2,2013-05-14 10:20:00,
2013-05-14 05:22:00,61.3,40.9,29.50,South,169,0.0,5.0,47,0.00,,,0.00,WUHU216DAVISVP2,2013-05-14 10:22:00,
2013-05-14 05:25:00,61.4,41.0,29.49,South,180,0.0,5.0,47,0.00,,,0.00,WUHU216DAVISVP2,2013-05-14 10:25:00,
2013-05-14 05:27:00,61.4,41.0,29.49,South,172,0.0,5.0,47,0.00,,,0.00,WUHU216DAVISVP2,2013-05-14 10:27:00,
2013-05-14 05:30:00,61.4,41.0,29.48,SSE,158,0.0,5.0,47,0.00,,,0.00,WUHU216DAVISVP2,2013-05-14 10:30:00,
2013-05-14 05:32:00,61.4,41.0,29.48,SSE,157,0.0,4.0,47,0.00,,,0.00,WUHU216DAVISVP2,2013-05-14 10:32:00,
2013-05-14 05:35:00,61.3,40.9,29.48,North,0,0.0,4.0,47,0.00,,,0.00,WUHU216DAVISVP2,2013-05-14 10:35:00,
2013-05-14 05:37:00,61.3,40.9,29.48,SSE,157,0.0,4.0,47,0.00,,,0.00,WUHU216DAVISVP2,2013-05-14 10:37:00,
2013-05-14 05:40:00,61.2,41.3,29.48,North,0,0.0,4.0,48,0.00,,,0.00,WUHU216DAVISVP2,2013-05-14 10:40:00,
2013-05-14 05:42:00,61.1,41.2,29.48,SSE,157,0.0,0.0,48,0.00,,,0.00,WUHU216DAVISVP2,2013-05-14 10:42:00,
2013-05-14 05:45:00,60.9,41.1,29.45,South,180,0.0,4.0,48,0.00,,,0.00,WUHU216DAVISVP2,2013-05-14 10:45:00,
2013-05-14 05:47:00,60.9,41.1,29.45,South,169,2.0,4.0,48,0.00,,,0.00,WUHU216DAVISVP2,2013-05-14 10:47:00,
2013-05-14 05:50:00,61.3,41.4,29.43,SSE,158,1.0,7.0,48,0.00,,,0.00,WUHU216DAVISVP2,2013-05-14 10:50:00,
2013-05-14 05:52:00,61.3,41.4,29.43,South,169,0.0,7.0,48,0.00,,,0.00,WUHU216DAVISVP2,2013-05-14 10:52:00,
2013-05-14 05:55:00,61.6,42.2,29.44,SSE,158,0.0,7.0,49,0.00,,,0.00,WUHU216DAVISVP2,2013-05-14 10:55:00,
2013-05-14 05:57:00,61.6,42.2,29.44,South,175,1.0,7.0,49,0.00,,,0.00,WUHU216DAVISVP2,2013-05-14 10:57:00,
2013-05-14 06:00:00,62.1,42.2,29.44,South,180,2.0,7.0,48,0.00,,,0.00,WUHU216DAVISVP2,2013-05-14 11:00:00,
2013-05-14 06:02:00,62.1,42.2,29.44,SSE,164,7.0,7.0,48,0.00,,,0.00,WUHU216DAVISVP2,2013-05-14 11:02:00,
2013-05-14 06:05:00,62.9,41.8,29.44,South,180,3.0,11.0,46,0.00,,,0.00,WUHU216DAVISVP2,2013-05-14 11:05:00,
2013-05-14 06:07:00,62.9,41.8,29.44,South,172,2.0,11.0,46,0.00,,,0.00,WUHU216DAVISVP2,2013-05-14 11:07:00,
2013-05-14 06:10:00,63.9,41.5,29.43,SSE,158,3.0,11.0,44,0.00,,,0.00,WUHU216DAVISVP2,2013-05-14 11:10:00,
2013-05-14 06:12:00,64.1,41.7,29.43,SSE,149,4.0,12.0,44,0.00,,,0.00,WUHU216DAVISVP2,2013-05-14 11:12:00,
2013-05-14 06:15:00,65.1,41.4,29.43,SSE,158,3.0,12.0,42,0.00,,,0.00,WUHU216DAVISVP2,2013-05-14 11:15:00,
2013-05-14 06:17:00,65.2,41.4,29.43,South,175,4.0,12.0,42,0.00,,,0.00,WUHU216DAVISVP2,2013-05-14 11:17:00,
2013-05-14 06:20:00,66.0,41.6,29.42,SSE,158,4.0,12.0,41,0.00,,,0.00,WUHU216DAVISVP2,2013-05-14 11:20:00,
2013-05-14 06:22:00,66.0,41.5,29.42,SSE,159,2.0,12.0,41,0.00,,,0.00,WUHU216DAVISVP2,2013-05-14 11:22:00,
2013-05-14 06:25:00,66.2,41.8,29.41,SSE,158,4.0,12.0,41,0.00,,,0.00,WUHU216DAVISVP2,2013-05-14 11:25:00,
2013-05-14 06:27:00,66.3,41.8,29.41,South,180,0.0,12.0,41,0.00,,,0.00,WUHU216DAVISVP2,2013-05-14 11:27:00,
2013-05-14 06:30:00,66.6,41.5,29.42,South,180,3.0,12.0,40,0.00,,,0.00,WUHU216DAVISVP2,2013-05-14 11:30:00,
2013-05-14 06:32:00,66.7,41.5,29.44,SSW,192,3.0,12.0,40,0.00,,,0.00,WUHU216DAVISVP2,2013-05-14 11:32:00,
2013-05-14 06:35:00,67.2,42.0,29.45,WNW,293,6.0,32.0,40,0.00,,,0.00,WUHU216DAVISVP2,2013-05-14 11:35:00,
2013-05-14 06:37:00,67.3,42.7,29.43,West,263,6.0,32.0,41,0.00,,,0.00,WUHU216DAVISVP2,2013-05-14 11:37:00,
2013-05-14 06:40:00,67.0,43.0,29.44,West,270,8.0,32.0,42,0.00,,,0.00,WUHU216DAVISVP2,2013-05-14 11:40:00,
2013-05-14 06:42:00,67.0,43.0,29.59,West,271,10.0,32.0,42,0.00,,,0.00,WUHU216DAVISVP2,2013-05-14 11:42:00,
2013-05-14 06:45:00,68.2,44.8,29.44,West,270,6.0,32.0,43,0.00,,,0.00,WUHU216DAVISVP2,2013-05-14 11:45:00,
2013-05-14 06:47:00,68.5,46.3,29.59,West,263,4.0,20.0,45,0.00,,,0.00,WUHU216DAVISVP2,2013-05-14 11:47:00,
2013-05-14 06:50:00,67.3,50.2,29.44,West,270,8.0,25.0,54,0.00,,,0.00,WUHU216DAVISVP2,2013-05-14 11:50:00,
2013-05-14 06:52:00,66.7,50.6,29.60,NW,323,12.0,25.0,56,0.00,,,0.00,WUHU216DAVISVP2,2013-05-14 11:52:00,
2013-05-14 06:55:00,63.3,51.1,29.44,WNW,293,7.0,25.0,64,0.00,,,0.00,WUHU216DAVISVP2,2013-05-14 11:55:00,
2013-05-14 06:57:00,62.8,50.6,29.62,NNE,14,2.0,25.0,64,0.00,,,0.00,WUHU216DAVISVP2,2013-05-14 11:57:00,
2013-05-14 07:00:00,60.8,50.3,29.44,NW,315,7.0,25.0,68,0.00,,,0.00,WUHU216DAVISVP2,2013-05-14 12:00:00,
2013-05-14 07:02:00,60.6,50.1,29.63,NNW,340,1.0,23.0,68,0.00,,,0.00,WUHU216DAVISVP2,2013-05-14 12:02:00,
2013-05-14 07:05:00,60.1,49.6,29.44,North,0,5.0,23.0,68,0.00,,,0.00,WUHU216DAVISVP2,2013-05-14 12:05:00,
2013-05-14 07:07:00,60.1,49.6,29.63,North,355,2.0,23.0,68,0.00,,,0.00,WUHU216DAVISVP2,2013-05-14 12:07:00,
2013-05-14 07:10:00,60.0,50.3,29.44,North,0,3.0,23.0,70,0.00,,,0.00,WUHU216DAVISVP2,2013-05-14 12:10:00,
2013-05-14 07:12:00,59.9,50.2,29.62,NE,44,0.0,21.0,70,0.00,,,0.00,WUHU216DAVISVP2,2013-05-14 12:12:00,
2013-05-14 07:15:00,59.9,51.0,29.44,North,0,5.0,21.0,72,0.00,,,0.00,WUHU216DAVISVP2,2013-05-14 12:15:00,
2013-05-14 07:17:00,59.9,51.0,29.60,North,11,5.0,21.0,72,0.00,,,0.00,WUHU216DAVISVP2,2013-05-14 12:17:00,
2013-05-14 07:20:00,59.9,51.7,29.44,NNE,23,5.0,21.0,74,0.00,,,0.00,WUHU216DAVISVP2,2013-05-14 12:20:00,
2013-05-14 07:22:00,59.9,52.1,29.59,North,360,5.0,20.0,75,0.00,,,0.00,WUHU216DAVISVP2,2013-05-14 12:22:00,
2013-05-14 07:25:00,60.2,52.7,29.44,NNE,23,7.0,20.0,76,0.00,,,0.00,WUHU216DAVISVP2,2013-05-14 12:25:00,
2013-05-14 07:27:00,60.3,52.8,29.58,North,360,13.0,20.0,76,0.00,,,0.00,WUHU216DAVISVP2,2013-05-14 12:27:00,
2013-05-14 07:30:00,60.2,52.7,29.44,NNE,23,7.0,20.0,76,0.00,,,0.00,WUHU216DAVISVP2,2013-05-14 12:30:00,
2013-05-14 07:32:00,60.2,52.7,29.57,NNE,31,7.0,20.0,76,0.00,,,0.00,WUHU216DAVISVP2,2013-05-14 12:32:00,
2013-05-14 07:35:00,60.0,52.5,29.44,NNE,23,7.0,20.0,76,0.00,,,0.00,WUHU216DAVISVP2,2013-05-14 12:35:00,
2013-05-14 07:37:00,60.0,52.5,29.55,North,5,12.0,19.0,76,0.00,,,0.00,WUHU216DAVISVP2,2013-05-14 12:37:00,
2013-05-14 07:40:00,60.1,52.6,29.44,NNE,23,7.0,19.0,76,0.00,,,0.00,WUHU216DAVISVP2,2013-05-14 12:40:00,
2013-05-14 07:42:00,60.1,52.6,29.54,NNE,30,2.0,19.0,76,0.00,,,0.00,WUHU216DAVISVP2,2013-05-14 12:42:00,
2013-05-14 07:45:00,60.2,52.6,29.54,NE,45,2.0,19.0,76,0.00,,,0.00,WUHU216DAVISVP2,2013-05-14 12:45:00,
2013-05-14 07:47:00,60.2,52.7,29.53,NNE,17,5.0,15.0,76,0.00,,,0.00,WUHU216DAVISVP2,2013-05-14 12:47:00,
2013-05-14 07:50:00,60.3,52.7,29.52,NNE,23,1.0,15.0,76,0.00,,,0.00,WUHU216DAVISVP2,2013-05-14 12:50:00,
2013-05-14 07:52:00,60.3,52.8,29.52,NE,42,0.0,7.0,76,0.00,,,0.00,WUHU216DAVISVP2,2013-05-14 12:52:00,
2013-05-14 07:55:00,60.4,52.1,29.50,ENE,68,2.0,13.0,74,0.00,,,0.00,WUHU216DAVISVP2,2013-05-14 12:55:00,
2013-05-14 07:57:00,60.5,52.3,29.50,NNE,28,5.0,13.0,74,0.00,,,0.00,WUHU216DAVISVP2,2013-05-14 12:57:00,
2013-05-14 08:00:00,60.7,52.0,29.49,NE,45,3.0,13.0,73,0.00,,,0.00,WUHU216DAVISVP2,2013-05-14 13:00:00,
2013-05-14 08:02:00,60.7,52.1,29.49,NNE,32,0.0,13.0,73,0.00,,,0.00,WUHU216DAVISVP2,2013-05-14 13:02:00,
2013-05-14 08:05:00,60.8,51.0,29.48,NE,45,3.0,13.0,70,0.00,,,0.00,WUHU216DAVISVP2,2013-05-14 13:05:00,
2013-05-14 08:07:00,60.8,51.1,29.48,NNE,32,4.0,12.0,70,0.00,,,0.00,WUHU216DAVISVP2,2013-05-14 13:07:00,
2013-05-14 08:10:00,60.6,50.4,29.49,NE,45,3.0,12.0,69,0.00,,,0.00,WUHU216DAVISVP2,2013-05-14 13:10:00,
2013-05-14 08:12:00,60.7,50.2,29.49,East,82,4.0,12.0,68,0.00,,,0.00,WUHU216DAVISVP2,2013-05-14 13:12:00,
2013-05-14 08:15:00,61.0,49.6,29.49,NE,45,3.0,13.0,66,0.00,,,0.00,WUHU216DAVISVP2,2013-05-14 13:15:00,
2013-05-14 08:17:00,61.0,50.1,29.49,North,11,1.0,13.0,67,0.00,,,0.00,WUHU216DAVISVP2,2013-05-14 13:17:00,
2013-05-14 08:20:00,61.3,49.4,29.50,NNE,23,3.0,13.0,65,0.00,,,0.00,WUHU216DAVISVP2,2013-05-14 13:20:00,
2013-05-14 08:21:00,61.4,49.3,29.50,ENE,67,4.0,13.0,64,0.00,,,0.00,WUHU216DAVISVP2,2013-05-14 13:21:00,
2013-05-14 08:25:00,61.7,49.4,29.49,NE,45,2.0,13.0,64,0.00,,,0.00,WUHU216DAVISVP2,2013-05-14 13:25:00,
2013-05-14 08:26:00,61.7,49.6,29.48,ENE,64,0.0,10.0,64,0.00,,,0.00,WUHU216DAVISVP2,2013-05-14 13:26:00,
2013-05-14 08:30:00,62.1,49.4,29.48,ENE,68,2.0,10.0,63,0.00,,,0.00,WUHU216DAVISVP2,2013-05-14 13:30:00,
2013-05-14 08:32:00,62.2,49.6,29.48,NE,46,2.0,9.0,63,0.00,,,0.00,WUHU216DAVISVP2,2013-05-14 13:32:00,
2013-05-14 08:35:00,62.7,49.5,29.48,NE,45,2.0,9.0,62,0.00,,,0.00,WUHU216DAVISVP2,2013-05-14 13:35:00,
2013-05-14 08:37:00,62.9,49.8,29.48,NE,52,4.0,7.0,62,0.00,,,0.00,WUHU216DAVISVP2,2013-05-14 13:37:00,
2013-05-14 08:40:00,63.6,49.5,29.48,NE,45,1.0,7.0,60,0.00,,,0.00,WUHU216DAVISVP2,2013-05-14 13:40:00,
2013-05-14 08:42:00,63.6,49.6,29.48,ENE,76,1.0,7.0,60,0.00,,,0.00,WUHU216DAVISVP2,2013-05-14 13:42:00,
2013-05-14 08:45:00,64.2,49.6,29.48,ENE,68,2.0,9.0,59,0.00,,,0.00,WUHU216DAVISVP2,2013-05-14 13:45:00,
2013-05-14 08:46:00,64.3,49.8,29.48,ENE,61,1.0,9.0,59,0.00,,,0.00,WUHU216DAVISVP2,2013-05-14 13:46:00,
2013-05-14 08:50:00,65.0,49.9,29.48,East,90,1.0,9.0,58,0.00,,,0.00,WUHU216DAVISVP2,2013-05-14 13:50:00,
2013-05-14 08:52:00,65.2,50.2,29.48,East,92,0.0,9.0,58,0.00,,,0.00,WUHU216DAVISVP2,2013-05-14 13:52:00,
2013-05-14 08:55:00,65.8,50.1,29.48,East,90,2.0,10.0,57,0.00,,,0.00,WUHU216DAVISVP2,2013-05-14 13:55:00,
2013-05-14 08:56:00,66.0,50.5,29.48,ESE,113,3.0,10.0,57,0.00,,,0.00,WUHU216DAVISVP2,2013-05-14 13:56:00,
2013-05-14 09:00:00,66.7,50.5,29.48,ESE,113,3.0,13.0,56,0.00,,,0.00,WUHU216DAVISVP2,2013-05-14 14:00:00,
2013-05-14 09:01:00,66.8,50.7,29.48,East,101,3.0,13.0,56,0.00,,,0.00,WUHU216DAVISVP2,2013-05-14 14:01:00,
2013-05-14 09:05:00,67.5,50.8,29.48,East,90,2.0,13.0,55,0.00,,,0.00,WUHU216DAVISVP2,2013-05-14 14:05:00,
2013-05-14 09:06:00,67.7,51.1,29.48,ESE,106,3.0,13.0,55,0.00,,,0.00,WUHU216DAVISVP2,2013-05-14 14:06:00,
2013-05-14 09:10:00,68.4,50.6,29.47,East,90,1.0,13.0,53,0.00,,,0.00,WUHU216DAVISVP2,2013-05-14 14:10:00,
2013-05-14 09:11:00,68.4,50.7,29.47,ESE,123,5.0,11.0,53,0.00,,,0.00,WUHU216DAVISVP2,2013-05-14 14:11:00,
2013-05-14 09:15:00,68.5,50.7,29.47,ESE,113,4.0,13.0,53,0.00,,,0.00,WUHU216DAVISVP2,2013-05-14 14:15:00,
2013-05-14 09:16:00,68.6,50.9,29.47,ENE,71,2.0,13.0,53,0.00,,,0.00,WUHU216DAVISVP2,2013-05-14 14:16:00,
2013-05-14 09:20:00,68.5,50.7,29.47,East,90,2.0,13.0,53,0.00,,,0.00,WUHU216DAVISVP2,2013-05-14 14:20:00,
2013-05-14 09:21:00,68.5,50.8,29.47,SE,126,0.0,13.0,53,0.00,,,0.00,WUHU216DAVISVP2,2013-05-14 14:21:00,
2013-05-14 09:25:00,68.6,49.7,29.47,ESE,113,4.0,13.0,51,0.00,,,0.00,WUHU216DAVISVP2,2013-05-14 14:25:00,
2013-05-14 09:26:00,68.6,49.8,29.47,SE,125,2.0,12.0,51,0.00,,,0.00,WUHU216DAVISVP2,2013-05-14 14:26:00,
2013-05-14 09:30:00,69.1,50.2,29.47,East,90,1.0,12.0,51,0.00,,,0.00,WUHU216DAVISVP2,2013-05-14 14:30:00,
2013-05-14 09:31:00,69.2,50.4,29.47,SE,136,0.0,12.0,51,0.00,,,0.00,WUHU216DAVISVP2,2013-05-14 14:31:00,
2013-05-14 09:35:00,70.2,50.1,29.47,ESE,113,1.0,12.0,49,0.00,,,0.00,WUHU216DAVISVP2,2013-05-14 14:35:00,
2013-05-14 09:36:00,70.2,49.6,29.47,East,100,5.0,10.0,48,0.00,,,0.00,WUHU216DAVISVP2,2013-05-14 14:36:00,
2013-05-14 09:40:00,70.2,49.6,29.46,ESE,113,4.0,13.0,48,0.00,,,0.00,WUHU216DAVISVP2,2013-05-14 14:40:00,
2013-05-14 09:41:00,70.2,49.6,29.46,ESE,102,0.0,13.0,48,0.00,,,0.00,WUHU216DAVISVP2,2013-05-14 14:41:00,
2013-05-14 09:45:00,70.5,49.9,29.46,ESE,113,2.0,13.0,48,0.00,,,0.00,WUHU216DAVISVP2,2013-05-14 14:45:00,
2013-05-14 09:46:00,70.7,50.1,29.46,ESE,102,0.0,13.0,48,0.00,,,0.00,WUHU216DAVISVP2,2013-05-14 14:46:00,
2013-05-14 09:50:00,71.5,49.6,29.46,SE,135,2.0,13.0,46,0.00,,,0.00,WUHU216DAVISVP2,2013-05-14 14:50:00,
2013-05-14 09:52:00,71.5,49.0,29.46,East,101,0.0,11.0,45,0.00,,,0.00,WUHU216DAVISVP2,2013-05-14 14:52:00,
2013-05-14 09:55:00,72.0,48.9,29.46,SE,135,2.0,11.0,44,0.00,,,0.00,WUHU216DAVISVP2,2013-05-14 14:55:00,
2013-05-14 09:57:00,72.0,48.9,29.46,SE,126,4.0,11.0,44,0.00,,,0.00,WUHU216DAVISVP2,2013-05-14 14:57:00,
2013-05-14 10:00:00,72.8,50.2,29.46,SE,135,2.0,12.0,45,0.00,,,0.00,WUHU216DAVISVP2,2013-05-14 15:00:00,
2013-05-14 10:02:00,72.9,49.7,29.46,SE,137,0.0,12.0,44,0.00,,,0.00,WUHU216DAVISVP2,2013-05-14 15:02:00,
2013-05-14 10:05:00,73.9,50.0,29.46,SSE,158,1.0,12.0,43,0.00,,,0.00,WUHU216DAVISVP2,2013-05-14 15:05:00,
2013-05-14 10:07:00,74.1,50.8,29.46,SSE,168,2.0,12.0,44,0.00,,,0.00,WUHU216DAVISVP2,2013-05-14 15:07:00,
2013-05-14 10:10:00,74.9,50.9,29.46,SSE,158,0.0,12.0,43,0.00,,,0.00,WUHU216DAVISVP2,2013-05-14 15:10:00,
2013-05-14 10:12:00,75.1,51.0,29.46,SE,138,0.0,10.0,43,0.00,,,0.00,WUHU216DAVISVP2,2013-05-14 15:12:00,
2013-05-14 10:15:00,75.8,51.1,29.46,ESE,113,1.0,10.0,42,0.00,,,0.00,WUHU216DAVISVP2,2013-05-14 15:15:00,
2013-05-14 10:17:00,75.8,50.3,29.46,SE,131,0.0,6.0,41,0.00,,,0.00,WUHU216DAVISVP2,2013-05-14 15:17:00,
2013-05-14 10:20:00,76.2,50.8,29.46,SE,135,0.0,10.0,41,0.00,,,0.00,WUHU216DAVISVP2,2013-05-14 15:20:00,
2013-05-14 10:22:00,76.4,50.9,29.47,South,184,0.0,6.0,41,0.00,,,0.00,WUHU216DAVISVP2,2013-05-14 15:22:00,
2013-05-14 10:25:00,77.4,51.2,29.46,South,180,0.0,6.0,40,0.00,,,0.00,WUHU216DAVISVP2,2013-05-14 15:25:00,
2013-05-14 10:27:00,77.6,51.3,29.46,SSE,167,0.0,6.0,40,0.00,,,0.00,WUHU216DAVISVP2,2013-05-14 15:27:00,
2013-05-14 10:30:00,78.3,51.3,29.46,SSE,158,0.0,6.0,39,0.00,,,0.00,WUHU216DAVISVP2,2013-05-14 15:30:00,
2013-05-14 10:32:00,78.4,51.3,29.46,SSE,166,0.0,5.0,39,0.00,,,0.00,WUHU216DAVISVP2,2013-05-14 15:32:00,
2013-05-14 10:35:00,78.8,51.0,29.46,South,180,3.0,14.0,38,0.00,,,0.00,WUHU216DAVISVP2,2013-05-14 15:35:00,
2013-05-14 10:37:00,78.9,50.3,29.46,South,176,1.0,14.0,37,0.00,,,0.00,WUHU216DAVISVP2,2013-05-14 15:37:00,
2013-05-14 10:40:00,79.2,50.7,29.46,SSE,158,2.0,14.0,37,0.00,,,0.00,WUHU216DAVISVP2,2013-05-14 15:40:00,
2013-05-14 10:42:00,79.3,49.9,29.46,South,183,0.0,14.0,36,0.00,,,0.00,WUHU216DAVISVP2,2013-05-14 15:42:00,
2013-05-14 10:45:00,79.6,50.3,29.46,South,180,2.0,14.0,36,0.00,,,0.00,WUHU216DAVISVP2,2013-05-14 15:45:00,
2013-05-14 10:47:00,79.7,50.3,29.46,SE,146,0.0,14.0,36,0.00,,,0.00,WUHU216DAVISVP2,2013-05-14 15:47:00,
2013-05-14 10:50:00,79.9,49.8,29.45,SSE,158,2.0,14.0,35,0.00,,,0.00,WUHU216DAVISVP2,2013-05-14 15:50:00,
2013-05-14 10:52:00,80.0,49.8,29.45,South,173,1.0,14.0,35,0.00,,,0.00,WUHU216DAVISVP2,2013-05-14 15:52:00,
2013-05-14 10:55:00,80.2,50.1,29.45,SSE,158,2.0,14.0,35,0.00,,,0.00,WUHU216DAVISVP2,2013-05-14 15:55:00,
2013-05-14 10:57:00,80.3,50.0,29.45,SE,140,9.0,11.0,35,0.00,,,0.00,WUHU216DAVISVP2,2013-05-14 15:57:00,
2013-05-14 11:00:00,80.6,49.6,29.45,South,180,3.0,12.0,34,0.00,,,0.00,WUHU216DAVISVP2,2013-05-14 16:00:00,
2013-05-14 11:02:00,80.8,49.7,29.45,South,186,0.0,12.0,34,0.00,,,0.00,WUHU216DAVISVP2,2013-05-14 16:02:00,
2013-05-14 11:05:00,81.7,50.6,29.45,South,180,1.0,12.0,34,0.00,,,0.00,WUHU216DAVISVP2,2013-05-14 16:05:00,
2013-05-14 11:07:00,82.0,50.7,29.45,South,186,0.0,12.0,34,0.00,,,0.00,WUHU216DAVISVP2,2013-05-14 16:07:00,
2013-05-14 11:10:00,82.6,50.6,29.45,SSE,158,2.0,12.0,33,0.00,,,0.00,WUHU216DAVISVP2,2013-05-14 16:10:00,
2013-05-14 11:12:00,82.7,50.5,29.45,South,178,3.0,9.0,33,0.00,,,0.00,WUHU216DAVISVP2,2013-05-14 16:12:00,
2013-05-14 11:15:00,83.1,50.2,29.45,South,180,1.0,10.0,32,0.00,,,0.00,WUHU216DAVISVP2,2013-05-14 16:15:00,
2013-05-14 11:17:00,83.2,50.1,29.46,South,180,0.0,10.0,32,0.00,,,0.00,WUHU216DAVISVP2,2013-05-14 16:17:00,
2013-05-14 11:20:00,83.6,49.8,29.45,South,180,4.0,14.0,31,0.00,,,0.00,WUHU216DAVISVP2,2013-05-14 16:20:00,
2013-05-14 11:22:00,83.7,49.7,29.46,South,175,3.0,14.0,31,0.00,,,0.00,WUHU216DAVISVP2,2013-05-14 16:22:00,
2013-05-14 11:25:00,84.3,50.4,29.46,South,180,2.0,14.0,31,0.00,,,0.00,WUHU216DAVISVP2,2013-05-14 16:25:00,
2013-05-14 11:27:00,84.5,49.5,29.46,South,190,11.0,14.0,30,0.00,,,0.00,WUHU216DAVISVP2,2013-05-14 16:27:00,
2013-05-14 11:30:00,84.9,50.0,29.45,South,180,5.0,14.0,30,0.00,,,0.00,WUHU216DAVISVP2,2013-05-14 16:30:00,
2013-05-14 11:32:00,85.0,50.0,29.45,SSW,207,6.0,14.0,30,0.00,,,0.00,WUHU216DAVISVP2,2013-05-14 16:32:00,
2013-05-14 11:35:00,85.4,50.4,29.45,SSW,203,5.0,14.0,30,0.00,,,0.00,WUHU216DAVISVP2,2013-05-14 16:35:00,
2013-05-14 11:37:00,85.5,50.4,29.45,SSW,194,4.0,14.0,30,0.00,,,0.00,WUHU216DAVISVP2,2013-05-14 16:37:00,
2013-05-14 11:40:00,86.1,50.1,29.46,SSW,203,3.0,14.0,29,0.00,,,0.00,WUHU216DAVISVP2,2013-05-14 16:40:00,
2013-05-14 11:42:00,86.3,51.1,29.46,SW,217,0.0,14.0,30,0.00,,,0.00,WUHU216DAVISVP2,2013-05-14 16:42:00,
2013-05-14 11:45:00,87.0,50.9,29.46,SSW,203,4.0,14.0,29,0.00,,,0.00,WUHU216DAVISVP2,2013-05-14 16:45:00,
2013-05-14 11:47:00,87.1,50.9,29.46,SSW,203,2.0,13.0,29,0.00,,,0.00,WUHU216DAVISVP2,2013-05-14 16:47:00,
2013-05-14 11:50:00,87.2,51.1,29.45,SSW,203,4.0,13.0,29,0.00,,,0.00,WUHU216DAVISVP2,2013-05-14 16:50:00,
2013-05-14 11:52:00,87.3,51.0,29.45,WSW,242,3.0,13.0,29,0.00,,,0.00,WUHU216DAVISVP2,2013-05-14 16:52:00,
2013-05-14 11:55:00,87.8,51.6,29.45,WSW,248,3.0,13.0,29,0.00,,,0.00,WUHU216DAVISVP2,2013-05-14 16:55:00,
2013-05-14 11:57:00,87.8,51.5,29.45,SSW,207,1.0,13.0,29,0.00,,,0.00,WUHU216DAVISVP2,2013-05-14 16:57:00,
2013-05-14 12:00:00,88.3,52.0,29.45,SSW,203,4.0,13.0,29,0.00,,,0.00,WUHU216DAVISVP2,2013-05-14 17:00:00,
2013-05-14 12:02:00,88.4,52.0,29.46,WSW,256,6.0,13.0,29,0.00,,,0.00,WUHU216DAVISVP2,2013-05-14 17:02:00,
2013-05-14 12:05:00,88.3,52.0,29.46,WSW,248,4.0,13.0,29,0.00,,,0.00,WUHU216DAVISVP2,2013-05-14 17:05:00,
2013-05-14 12:07:00,88.3,51.9,29.46,West,271,7.0,12.0,29,0.00,,,0.00,WUHU216DAVISVP2,2013-05-14 17:07:00,
2013-05-14 12:10:00,88.7,52.4,29.47,WSW,248,4.0,13.0,29,0.00,,,0.00,WUHU216DAVISVP2,2013-05-14 17:10:00,
2013-05-14 12:12:00,88.6,51.2,29.46,WSW,240,6.0,13.0,28,0.00,,,0.00,WUHU216DAVISVP2,2013-05-14 17:12:00,
2013-05-14 12:15:00,88.3,52.9,29.47,WSW,248,4.0,13.0,30,0.00,,,0.00,WUHU216DAVISVP2,2013-05-14 17:15:00,
2013-05-14 12:17:00,88.4,52.9,29.47,West,269,1.0,13.0,30,0.00,,,0.00,WUHU216DAVISVP2,2013-05-14 17:17:00,
2013-05-14 12:20:00,88.8,54.3,29.47,WSW,248,3.0,13.0,31,0.00,,,0.00,WUHU216DAVISVP2,2013-05-14 17:20:00,
2013-05-14 12:22:00,89.0,53.4,29.47,West,261,0.0,12.0,30,0.00,,,0.00,WUHU216DAVISVP2,2013-05-14 17:22:00,
2013-05-14 12:25:00,89.5,54.9,29.47,West,270,1.0,12.0,31,0.00,,,0.00,WUHU216DAVISVP2,2013-05-14 17:25:00,
2013-05-14 12:27:00,89.6,54.0,29.46,WSW,242,10.0,14.0,30,0.00,,,0.00,WUHU216DAVISVP2,2013-05-14 17:27:00,
2013-05-14 12:30:00,89.7,53.2,29.47,West,270,4.0,14.0,29,0.00,,,0.00,WUHU216DAVISVP2,2013-05-14 17:30:00,
2013-05-14 12:32:00,89.5,53.9,29.47,SW,236,4.0,14.0,30,0.00,,,0.00,WUHU216DAVISVP2,2013-05-14 17:32:00,
2013-05-14 12:35:00,88.7,53.3,29.47,West,270,5.0,15.0,30,0.00,,,0.00,WUHU216DAVISVP2,2013-05-14 17:35:00,
2013-05-14 12:37:00,88.2,52.7,29.47,WSW,255,3.0,15.0,30,0.00,,,0.00,WUHU216DAVISVP2,2013-05-14 17:37:00,
2013-05-14 12:40:00,87.4,53.9,29.47,West,270,5.0,16.0,32,0.00,,,0.00,WUHU216DAVISVP2,2013-05-14 17:40:00,
2013-05-14 12:42:00,87.3,53.7,29.47,SW,236,3.0,16.0,32,0.00,,,0.00,WUHU216DAVISVP2,2013-05-14 17:42:00,
2013-05-14 12:45:00,87.2,53.7,29.47,West,270,4.0,16.0,32,0.00,,,0.00,WUHU216DAVISVP2,2013-05-14 17:45:00,
2013-05-14 12:47:00,87.2,54.5,29.47,West,273,7.0,16.0,33,0.00,,,0.00,WUHU216DAVISVP2,2013-05-14 17:47:00,
2013-05-14 12:50:00,86.8,54.2,29.48,West,270,5.0,20.0,33,0.00,,,0.00,WUHU216DAVISVP2,2013-05-14 17:50:00,
2013-05-14 12:52:00,86.5,54.7,29.47,West,279,10.0,22.0,34,0.00,,,0.00,WUHU216DAVISVP2,2013-05-14 17:52:00,
2013-05-14 12:55:00,86.0,54.4,29.48,West,270,6.0,22.0,34,0.00,,,0.00,WUHU216DAVISVP2,2013-05-14 17:55:00,
2013-05-14 12:57:00,85.9,55.0,29.47,West,269,2.0,22.0,35,0.00,,,0.00,WUHU216DAVISVP2,2013-05-14 17:57:00,
2013-05-14 13:00:00,86.5,55.6,29.48,West,270,3.0,22.0,35,0.00,,,0.00,WUHU216DAVISVP2,2013-05-14 18:00:00,
2013-05-14 13:02:00,86.7,55.7,29.48,WNW,290,1.0,18.0,35,0.00,,,0.00,WUHU216DAVISVP2,2013-05-14 18:02:00,
2013-05-14 13:05:00,86.6,55.7,29.48,West,270,4.0,22.0,35,0.00,,,0.00,WUHU216DAVISVP2,2013-05-14 18:05:00,
2013-05-14 13:07:00,86.6,55.6,29.48,West,272,2.0,15.0,35,0.00,,,0.00,WUHU216DAVISVP2,2013-05-14 18:07:00,
2013-05-14 13:10:00,87.0,56.0,29.48,West,270,3.0,16.0,35,0.00,,,0.00,WUHU216DAVISVP2,2013-05-14 18:10:00,
2013-05-14 13:12:00,87.0,55.9,29.48,WNW,292,10.0,20.0,35,0.00,,,0.00,WUHU216DAVISVP2,2013-05-14 18:12:00,
2013-05-14 13:15:00,86.2,56.1,29.47,West,270,8.0,21.0,36,0.00,,,0.00,WUHU216DAVISVP2,2013-05-14 18:15:00,
2013-05-14 13:17:00,85.9,55.8,29.48,WNW,287,10.0,25.0,36,0.00,,,0.00,WUHU216DAVISVP2,2013-05-14 18:17:00,
2013-05-14 13:20:00,85.5,56.3,29.48,West,270,8.0,25.0,37,0.00,,,0.00,WUHU216DAVISVP2,2013-05-14 18:20:00,
2013-05-14 13:22:00,85.6,55.5,29.48,WSW,242,10.0,25.0,36,0.00,,,0.00,WUHU216DAVISVP2,2013-05-14 18:22:00,
2013-05-14 13:25:00,86.2,56.9,29.47,WSW,248,5.0,25.0,37,0.00,,,0.00,WUHU216DAVISVP2,2013-05-14 18:25:00,
2013-05-14 13:27:00,86.3,56.9,29.48,WSW,246,4.0,23.0,37,0.00,,,0.00,WUHU216DAVISVP2,2013-05-14 18:27:00,
2013-05-14 13:30:00,85.5,56.3,29.48,WNW,293,7.0,25.0,37,0.00,,,0.00,WUHU216DAVISVP2,2013-05-14 18:30:00,
2013-05-14 13:32:00,85.4,56.1,29.48,WSW,252,4.0,20.0,37,0.00,,,0.00,WUHU216DAVISVP2,2013-05-14 18:32:00,
2013-05-14 13:35:00,85.7,56.4,29.47,West,270,4.0,20.0,37,0.00,,,0.00,WUHU216DAVISVP2,2013-05-14 18:35:00,
2013-05-14 13:37:00,85.8,57.2,29.47,West,280,3.0,20.0,38,0.00,,,0.00,WUHU216DAVISVP2,2013-05-14 18:37:00,
2013-05-14 13:40:00,86.0,57.4,29.47,WNW,293,4.0,20.0,38,0.00,,,0.00,WUHU216DAVISVP2,2013-05-14 18:40:00,
2013-05-14 13:42:00,86.1,57.5,29.47,West,280,3.0,17.0,38,0.00,,,0.00,WUHU216DAVISVP2,2013-05-14 18:42:00,
2013-05-14 13:45:00,86.4,55.5,29.47,West,270,5.0,20.0,35,0.00,,,0.00,WUHU216DAVISVP2,2013-05-14 18:45:00,
2013-05-14 13:47:00,86.5,56.3,29.47,WSW,242,10.0,20.0,36,0.00,,,0.00,WUHU216DAVISVP2,2013-05-14 18:47:00,
2013-05-14 13:50:00,86.6,56.5,29.47,WSW,248,5.0,20.0,36,0.00,,,0.00,WUHU216DAVISVP2,2013-05-14 18:50:00,
2013-05-14 13:52:00,86.5,56.3,29.47,WSW,257,3.0,20.0,36,0.00,,,0.00,WUHU216DAVISVP2,2013-05-14 18:52:00,
2013-05-14 13:55:00,85.6,58.5,29.47,West,270,7.0,22.0,40,0.00,,,0.00,WUHU216DAVISVP2,2013-05-14 18:55:00,
2013-05-14 13:57:00,85.6,57.0,29.47,NW,321,9.0,22.0,38,0.00,,,0.00,WUHU216DAVISVP2,2013-05-14 18:57:00,
2013-05-14 14:00:00,84.7,54.8,29.48,WNW,293,10.0,26.0,36,0.00,,,0.00,WUHU216DAVISVP2,2013-05-14 19:00:00,
2013-05-14 14:02:00,84.4,55.2,29.48,WSW,240,15.0,26.0,37,0.00,,,0.00,WUHU216DAVISVP2,2013-05-14 19:02:00,
2013-05-14 14:05:00,84.5,52.2,29.48,West,270,7.0,26.0,33,0.00,,,0.00,WUHU216DAVISVP2,2013-05-14 19:05:00,
2013-05-14 14:07:00,84.7,52.3,29.48,WNW,287,1.0,26.0,33,0.00,,,0.00,WUHU216DAVISVP2,2013-05-14 19:07:00,
2013-05-14 14:10:00,84.7,51.6,29.48,West,270,6.0,26.0,32,0.00,,,0.00,WUHU216DAVISVP2,2013-05-14 19:10:00,
2013-05-14 14:12:00,84.7,52.3,29.48,West,279,2.0,18.0,33,0.00,,,0.00,WUHU216DAVISVP2,2013-05-14 19:12:00,
2013-05-14 14:15:00,85.3,46.5,29.48,West,270,6.0,18.0,26,0.00,,,0.00,WUHU216DAVISVP2,2013-05-14 19:15:00,
2013-05-14 14:17:00,85.3,45.4,29.48,West,263,3.0,18.0,25,0.00,,,0.00,WUHU216DAVISVP2,2013-05-14 19:17:00,
2013-05-14 14:20:00,85.7,43.6,29.48,West,270,6.0,19.0,23,0.00,,,0.00,WUHU216DAVISVP2,2013-05-14 19:20:00,
2013-05-14 14:22:00,85.8,43.7,29.48,SW,215,7.0,19.0,23,0.00,,,0.00,WUHU216DAVISVP2,2013-05-14 19:22:00,
2013-05-14 14:25:00,85.9,43.8,29.49,West,270,6.0,19.0,23,0.00,,,0.00,WUHU216DAVISVP2,2013-05-14 19:25:00,
2013-05-14 14:27:00,85.7,43.6,29.48,WNW,284,1.0,19.0,23,0.00,,,0.00,WUHU216DAVISVP2,2013-05-14 19:27:00,
2013-05-14 14:30:00,86.0,42.7,29.48,West,270,4.0,19.0,22,0.00,,,0.00,WUHU216DAVISVP2,2013-05-14 19:30:00,
2013-05-14 14:32:00,86.0,43.8,29.49,West,276,2.0,19.0,23,0.00,,,0.00,WUHU216DAVISVP2,2013-05-14 19:32:00,
2013-05-14 14:35:00,85.8,41.3,29.49,West,270,7.0,20.0,21,0.00,,,0.00,WUHU216DAVISVP2,2013-05-14 19:35:00,
2013-05-14 14:37:00,85.6,42.4,29.49,NW,304,10.0,20.0,22,0.00,,,0.00,WUHU216DAVISVP2,2013-05-14 19:37:00,
2013-05-14 14:40:00,85.4,41.0,29.49,West,270,7.0,20.0,21,0.00,,,0.00,WUHU216DAVISVP2,2013-05-14 19:40:00,
2013-05-14 14:42:00,85.2,40.8,29.49,WNW,302,15.0,20.0,21,0.00,,,0.00,WUHU216DAVISVP2,2013-05-14 19:42:00,
2013-05-14 14:45:00,84.7,41.6,29.49,WNW,293,9.0,21.0,22,0.00,,,0.00,WUHU216DAVISVP2,2013-05-14 19:45:00,
2013-05-14 14:47:00,84.7,42.7,29.49,WSW,254,7.0,21.0,23,0.00,,,0.00,WUHU216DAVISVP2,2013-05-14 19:47:00,
2013-05-14 14:50:00,84.5,42.6,29.49,West,270,8.0,21.0,23,0.00,,,0.00,WUHU216DAVISVP2,2013-05-14 19:50:00,
2013-05-14 14:52:00,84.5,42.6,29.49,WNW,302,4.0,24.0,23,0.00,,,0.00,WUHU216DAVISVP2,2013-05-14 19:52:00,
2013-05-14 14:55:00,83.8,43.2,29.50,WNW,293,11.0,31.0,24,0.00,,,0.00,WUHU216DAVISVP2,2013-05-14 19:55:00,
2013-05-14 14:57:00,83.6,42.9,29.50,WNW,290,3.0,31.0,24,0.00,,,0.00,WUHU216DAVISVP2,2013-05-14 19:57:00,
2013-05-14 15:00:00,83.6,41.9,29.50,West,270,11.0,31.0,23,0.00,,,0.00,WUHU216DAVISVP2,2013-05-14 20:00:00,
2013-05-14 15:02:00,83.6,41.8,29.51,West,263,14.0,31.0,23,0.00,,,0.00,WUHU216DAVISVP2,2013-05-14 20:02:00,
2013-05-14 15:05:00,83.2,42.6,29.51,West,270,12.0,31.0,24,0.00,,,0.00,WUHU216DAVISVP2,2013-05-14 20:05:00,
2013-05-14 15:07:00,82.9,42.3,29.51,NW,308,13.0,23.0,24,0.00,,,0.00,WUHU216DAVISVP2,2013-05-14 20:07:00,
2013-05-14 15:10:00,82.6,41.0,29.51,WNW,293,11.0,25.0,23,0.00,,,0.00,WUHU216DAVISVP2,2013-05-14 20:10:00,
2013-05-14 15:12:00,82.3,40.7,29.52,West,276,13.0,29.0,23,0.00,,,0.00,WUHU216DAVISVP2,2013-05-14 20:12:00,
2013-05-14 15:15:00,82.1,41.7,29.51,West,270,12.0,29.0,24,0.00,,,0.00,WUHU216DAVISVP2,2013-05-14 20:15:00,
2013-05-14 15:17:00,82.0,41.6,29.51,West,267,22.0,29.0,24,0.00,,,0.00,WUHU216DAVISVP2,2013-05-14 20:17:00,
2013-05-14 15:20:00,82.3,43.0,29.51,West,270,8.0,29.0,25,0.00,,,0.00,WUHU216DAVISVP2,2013-05-14 20:20:00,
2013-05-14 15:22:00,82.5,42.0,29.52,WNW,282,5.0,22.0,24,0.00,,,0.00,WUHU216DAVISVP2,2013-05-14 20:22:00,
2013-05-14 15:25:00,82.7,42.2,29.52,West,270,7.0,29.0,24,0.00,,,0.00,WUHU216DAVISVP2,2013-05-14 20:25:00,
2013-05-14 15:27:00,82.9,41.2,29.52,WNW,296,11.0,20.0,23,0.00,,,0.00,WUHU216DAVISVP2,2013-05-14 20:27:00,
2013-05-14 15:30:00,82.4,40.9,29.52,West,270,12.0,31.0,23,0.00,,,0.00,WUHU216DAVISVP2,2013-05-14 20:30:00,
2013-05-14 15:32:00,82.1,40.6,29.52,West,280,16.0,31.0,23,0.00,,,0.00,WUHU216DAVISVP2,2013-05-14 20:32:00,
2013-05-14 15:35:00,81.9,41.6,29.52,West,270,11.0,31.0,24,0.00,,,0.00,WUHU216DAVISVP2,2013-05-14 20:35:00,
2013-05-14 15:37:00,81.8,41.4,29.52,NW,315,21.0,31.0,24,0.00,,,0.00,WUHU216DAVISVP2,2013-05-14 20:37:00,
2013-05-14 15:40:00,81.5,41.2,29.52,West,270,13.0,31.0,24,0.00,,,0.00,WUHU216DAVISVP2,2013-05-14 20:40:00,
2013-05-14 15:42:00,81.5,41.1,29.52,WNW,285,11.0,26.0,24,0.00,,,0.00,WUHU216DAVISVP2,2013-05-14 20:42:00,
2013-05-14 15:45:00,81.9,41.6,29.52,WNW,293,10.0,26.0,24,0.00,,,0.00,WUHU216DAVISVP2,2013-05-14 20:45:00,
2013-05-14 15:47:00,82.0,42.6,29.52,West,277,4.0,24.0,25,0.00,,,0.00,WUHU216DAVISVP2,2013-05-14 20:47:00,
2013-05-14 15:50:00,82.1,41.7,29.52,WNW,293,10.0,26.0,24,0.00,,,0.00,WUHU216DAVISVP2,2013-05-14 20:50:00,
2013-05-14 15:52:00,82.1,42.7,29.52,NNW,336,16.0,26.0,25,0.00,,,0.00,WUHU216DAVISVP2,2013-05-14 20:52:00,
2013-05-14 15:55:00,82.0,41.6,29.52,West,270,10.0,27.0,24,0.00,,,0.00,WUHU216DAVISVP2,2013-05-14 20:55:00,
2013-05-14 15:57:00,81.9,42.5,29.52,West,281,14.0,27.0,25,0.00,,,0.00,WUHU216DAVISVP2,2013-05-14 20:57:00,
2013-05-14 16:00:00,82.0,42.7,29.52,West,270,9.0,27.0,25,0.00,,,0.00,WUHU216DAVISVP2,2013-05-14 21:00:00,
2013-05-14 16:02:00,82.1,42.7,29.52,WNW,294,18.0,27.0,25,0.00,,,0.00,WUHU216DAVISVP2,2013-05-14 21:02:00,
2013-05-14 16:05:00,82.5,43.1,29.52,West,270,6.0,27.0,25,0.00,,,0.00,WUHU216DAVISVP2,2013-05-14 21:05:00,
2013-05-14 16:07:00,82.7,42.2,29.52,WNW,297,14.0,21.0,24,0.00,,,0.00,WUHU216DAVISVP2,2013-05-14 21:07:00,
2013-05-14 16:10:00,82.3,41.9,29.52,WNW,293,12.0,25.0,24,0.00,,,0.00,WUHU216DAVISVP2,2013-05-14 21:10:00,
2013-05-14 16:12:00,82.1,42.7,29.52,West,281,7.0,24.0,25,0.00,,,0.00,WUHU216DAVISVP2,2013-05-14 21:12:00,
2013-05-14 16:15:00,82.1,42.8,29.52,West,270,10.0,27.0,25,0.00,,,0.00,WUHU216DAVISVP2,2013-05-14 21:15:00,
2013-05-14 16:17:00,82.0,42.6,29.52,West,266,7.0,27.0,25,0.00,,,0.00,WUHU216DAVISVP2,2013-05-14 21:17:00,
2013-05-14 16:20:00,81.7,43.5,29.52,West,270,9.0,27.0,26,0.00,,,0.00,WUHU216DAVISVP2,2013-05-14 21:20:00,
2013-05-14 16:22:00,81.8,43.5,29.52,NW,319,10.0,27.0,26,0.00,,,0.00,WUHU216DAVISVP2,2013-05-14 21:22:00,
2013-05-14 16:25:00,81.8,44.5,29.52,West,270,10.0,27.0,27,0.00,,,0.00,WUHU216DAVISVP2,2013-05-14 21:25:00,
2013-05-14 16:27:00,81.6,44.3,29.52,WNW,300,5.0,24.0,27,0.00,,,0.00,WUHU216DAVISVP2,2013-05-14 21:27:00,
2013-05-14 16:30:00,81.3,44.1,29.51,West,270,11.0,26.0,27,0.00,,,0.00,WUHU216DAVISVP2,2013-05-14 21:30:00,
2013-05-14 16:32:00,81.3,44.0,29.52,NW,313,9.0,26.0,27,0.00,,,0.00,WUHU216DAVISVP2,2013-05-14 21:32:00,
2013-05-14 16:35:00,81.2,45.0,29.52,WNW,293,11.0,27.0,28,0.00,,,0.00,WUHU216DAVISVP2,2013-05-14 21:35:00,
2013-05-14 16:37:00,81.2,44.9,29.53,WNW,290,24.0,27.0,28,0.00,,,0.00,WUHU216DAVISVP2,2013-05-14 21:37:00,
2013-05-14 16:40:00,81.0,44.8,29.52,West,270,13.0,27.0,28,0.00,,,0.00,WUHU216DAVISVP2,2013-05-14 21:40:00,
2013-05-14 16:42:00,81.0,44.7,29.53,West,280,5.0,27.0,28,0.00,,,0.00,WUHU216DAVISVP2,2013-05-14 21:42:00,
2013-05-14 16:45:00,80.5,45.3,29.53,WNW,293,13.0,31.0,29,0.00,,,0.00,WUHU216DAVISVP2,2013-05-14 21:45:00,
2013-05-14 16:47:00,80.3,45.0,29.53,West,272,19.0,31.0,29,0.00,,,0.00,WUHU216DAVISVP2,2013-05-14 21:47:00,
2013-05-14 16:50:00,79.9,44.8,29.53,WNW,293,12.0,31.0,29,0.00,,,0.00,WUHU216DAVISVP2,2013-05-14 21:50:00,
2013-05-14 16:52:00,79.9,44.7,29.53,West,269,6.0,31.0,29,0.00,,,0.00,WUHU216DAVISVP2,2013-05-14 21:52:00,
2013-05-14 16:55:00,80.2,45.1,29.53,WNW,293,9.0,31.0,29,0.00,,,0.00,WUHU216DAVISVP2,2013-05-14 21:55:00,
2013-05-14 16:57:00,80.1,44.8,29.53,NW,326,15.0,28.0,29,0.00,,,0.00,WUHU216DAVISVP2,2013-05-14 21:57:00,
2013-05-14 17:00:00,79.7,45.5,29.53,West,270,13.0,28.0,30,0.00,,,0.00,WUHU216DAVISVP2,2013-05-14 22:00:00,
2013-05-14 17:02:00,79.5,46.1,29.54,WNW,284,20.0,28.0,31,0.00,,,0.00,WUHU216DAVISVP2,2013-05-14 22:02:00,
2013-05-14 17:05:00,79.3,46.0,29.54,WNW,293,12.0,28.0,31,0.00,,,0.00,WUHU216DAVISVP2,2013-05-14 22:05:00,
2013-05-14 17:07:00,79.3,46.7,29.54,NW,305,13.0,27.0,32,0.00,,,0.00,WUHU216DAVISVP2,2013-05-14 22:07:00,
2013-05-14 17:10:00,79.1,46.7,29.55,West,270,12.0,29.0,32,0.00,,,0.00,WUHU216DAVISVP2,2013-05-14 22:10:00,
2013-05-14 17:12:00,78.9,45.5,29.54,NW,312,9.0,29.0,31,0.00,,,0.00,WUHU216DAVISVP2,2013-05-14 22:12:00,
2013-05-14 17:15:00,78.9,46.5,29.54,WNW,293,10.0,29.0,32,0.00,,,0.00,WUHU216DAVISVP2,2013-05-14 22:15:00,
2013-05-14 17:17:00,79.0,46.5,29.55,West,260,7.0,29.0,32,0.00,,,0.00,WUHU216DAVISVP2,2013-05-14 22:17:00,
2013-05-14 17:20:00,78.7,46.4,29.55,West,270,12.0,29.0,32,0.00,,,0.00,WUHU216DAVISVP2,2013-05-14 22:20:00,
2013-05-14 17:22:00,78.7,46.2,29.55,NW,319,16.0,22.0,32,0.00,,,0.00,WUHU216DAVISVP2,2013-05-14 22:22:00,
2013-05-14 17:25:00,78.2,45.9,29.55,West,270,12.0,29.0,32,0.00,,,0.00,WUHU216DAVISVP2,2013-05-14 22:25:00,
2013-05-14 17:27:00,78.1,45.7,29.56,West,275,15.0,29.0,32,0.00,,,0.00,WUHU216DAVISVP2,2013-05-14 22:27:00,
2013-05-14 17:30:00,78.0,46.6,29.56,WNW,293,12.0,29.0,33,0.00,,,0.00,WUHU216DAVISVP2,2013-05-14 22:30:00,
2013-05-14 17:32:00,77.9,46.3,29.56,WNW,299,13.0,29.0,33,0.00,,,0.00,WUHU216DAVISVP2,2013-05-14 22:32:00,
2013-05-14 17:35:00,77.3,46.7,29.56,West,270,11.0,29.0,34,0.00,,,0.00,WUHU216DAVISVP2,2013-05-14 22:35:00,
2013-05-14 17:37:00,77.2,46.5,29.56,West,273,11.0,25.0,34,0.00,,,0.00,WUHU216DAVISVP2,2013-05-14 22:37:00,
2013-05-14 17:40:00,77.0,46.5,29.56,WNW,293,10.0,25.0,34,0.00,,,0.00,WUHU216DAVISVP2,2013-05-14 22:40:00,
2013-05-14 17:42:00,77.0,46.3,29.56,West,273,11.0,25.0,34,0.00,,,0.00,WUHU216DAVISVP2,2013-05-14 22:42:00,
2013-05-14 17:45:00,77.2,46.7,29.57,WNW,293,8.0,25.0,34,0.00,,,0.00,WUHU216DAVISVP2,2013-05-14 22:45:00,
2013-05-14 17:47:00,77.2,46.5,29.56,West,272,11.0,23.0,34,0.00,,,0.00,WUHU216DAVISVP2,2013-05-14 22:47:00,
2013-05-14 17:50:00,76.9,47.2,29.56,WNW,293,9.0,25.0,35,0.00,,,0.00,WUHU216DAVISVP2,2013-05-14 22:50:00,
2013-05-14 17:52:00,77.0,47.1,29.57,WNW,288,6.0,23.0,35,0.00,,,0.00,WUHU216DAVISVP2,2013-05-14 22:52:00,
2013-05-14 17:55:00,76.9,46.4,29.56,West,270,11.0,27.0,34,0.00,,,0.00,WUHU216DAVISVP2,2013-05-14 22:55:00,
2013-05-14 17:57:00,76.7,46.1,29.57,WNW,300,5.0,27.0,34,0.00,,,0.00,WUHU216DAVISVP2,2013-05-14 22:57:00,
2013-05-14 18:00:00,76.3,46.6,29.57,WNW,293,10.0,27.0,35,0.00,,,0.00,WUHU216DAVISVP2,2013-05-14 23:00:00,
2013-05-14 18:02:00,76.3,46.5,29.57,West,279,16.0,27.0,35,0.00,,,0.00,WUHU216DAVISVP2,2013-05-14 23:02:00,
2013-05-14 18:05:00,76.4,46.7,29.57,WNW,293,9.0,27.0,35,0.00,,,0.00,WUHU216DAVISVP2,2013-05-14 23:05:00,
2013-05-14 18:07:00,76.2,46.4,29.57,NW,304,17.0,23.0,35,0.00,,,0.00,WUHU216DAVISVP2,2013-05-14 23:07:00,
2013-05-14 18:10:00,75.7,46.8,29.57,WNW,293,12.0,23.0,36,0.00,,,0.00,WUHU216DAVISVP2,2013-05-14 23:10:00,
2013-05-14 18:12:00,75.6,46.6,29.57,West,271,10.0,23.0,36,0.00,,,0.00,WUHU216DAVISVP2,2013-05-14 23:12:00,
2013-05-14 18:15:00,75.8,46.9,29.57,WNW,293,7.0,23.0,36,0.00,,,0.00,WUHU216DAVISVP2,2013-05-14 23:15:00,
2013-05-14 18:17:00,75.8,46.8,29.57,NW,324,11.0,24.0,36,0.00,,,0.00,WUHU216DAVISVP2,2013-05-14 23:17:00,
2013-05-14 18:20:00,75.8,46.2,29.58,West,270,8.0,24.0,35,0.00,,,0.00,WUHU216DAVISVP2,2013-05-14 23:20:00,
2013-05-14 18:22:00,75.8,46.0,29.58,WNW,284,9.0,24.0,35,0.00,,,0.00,WUHU216DAVISVP2,2013-05-14 23:22:00,
2013-05-14 18:25:00,75.2,46.4,29.58,WNW,293,9.0,24.0,36,0.00,,,0.00,WUHU216DAVISVP2,2013-05-14 23:25:00,
2013-05-14 18:27:00,75.1,46.2,29.57,WNW,283,10.0,24.0,36,0.00,,,0.00,WUHU216DAVISVP2,2013-05-14 23:27:00,
2013-05-14 18:30:00,75.2,46.4,29.57,WNW,293,8.0,24.0,36,0.00,,,0.00,WUHU216DAVISVP2,2013-05-14 23:30:00,
2013-05-14 18:32:00,75.1,46.2,29.58,NW,309,10.0,26.0,36,0.00,,,0.00,WUHU216DAVISVP2,2013-05-14 23:32:00,
2013-05-14 18:35:00,75.1,46.3,29.58,WNW,293,7.0,26.0,36,0.00,,,0.00,WUHU216DAVISVP2,2013-05-14 23:35:00,
2013-05-14 18:37:00,75.1,46.2,29.58,NW,307,2.0,26.0,36,0.00,,,0.00,WUHU216DAVISVP2,2013-05-14 23:37:00,
2013-05-14 18:40:00,75.0,46.2,29.58,WNW,293,7.0,26.0,36,0.00,,,0.00,WUHU216DAVISVP2,2013-05-14 23:40:00,
2013-05-14 18:42:00,74.8,45.9,29.59,West,277,10.0,26.0,36,0.00,,,0.00,WUHU216DAVISVP2,2013-05-14 23:42:00,
2013-05-14 18:45:00,74.4,45.7,29.59,West,270,8.0,26.0,36,0.00,,,0.00,WUHU216DAVISVP2,2013-05-14 23:45:00,
2013-05-14 18:47:00,74.2,45.4,29.59,West,269,3.0,26.0,36,0.00,,,0.00,WUHU216DAVISVP2,2013-05-14 23:47:00,
2013-05-14 18:50:00,74.1,46.2,29.59,West,270,4.0,26.0,37,0.00,,,0.00,WUHU216DAVISVP2,2013-05-14 23:50:00,
2013-05-14 18:52:00,74.0,45.9,29.59,NW,305,4.0,21.0,37,0.00,,,0.00,WUHU216DAVISVP2,2013-05-14 23:52:00,
2013-05-14 18:55:00,73.5,46.3,29.60,West,270,7.0,21.0,38,0.00,,,0.00,WUHU216DAVISVP2,2013-05-14 23:55:00,
2013-05-14 18:57:00,73.4,46.1,29.60,WNW,288,0.0,21.0,38,0.00,,,0.00,WUHU216DAVISVP2,2013-05-14 23:57:00,
2013-05-14 19:00:00,73.2,46.1,29.60,WNW,293,5.0,21.0,38,0.00,,,0.00,WUHU216DAVISVP2,2013-05-15 00:00:00,
2013-05-14 19:02:00,73.1,45.8,29.60,West,265,1.0,21.0,38,0.00,,,0.00,WUHU216DAVISVP2,2013-05-15 00:02:00,
2013-05-14 19:05:00,72.8,46.4,29.60,West,270,7.0,22.0,39,0.00,,,0.00,WUHU216DAVISVP2,2013-05-15 00:05:00,
2013-05-14 19:07:00,72.6,46.1,29.60,West,280,20.0,22.0,39,0.00,,,0.00,WUHU216DAVISVP2,2013-05-15 00:07:00,
2013-05-14 19:10:00,72.1,45.8,29.61,WNW,293,12.0,28.0,39,0.00,,,0.00,WUHU216DAVISVP2,2013-05-15 00:10:00,
2013-05-14 19:12:00,71.8,45.4,29.61,West,281,6.0,28.0,39,0.00,,,0.00,WUHU216DAVISVP2,2013-05-15 00:12:00,
2013-05-14 19:15:00,71.4,45.1,29.61,WNW,293,12.0,28.0,39,0.00,,,0.00,WUHU216DAVISVP2,2013-05-15 00:15:00,
2013-05-14 19:17:00,71.3,44.9,29.61,West,276,12.0,28.0,39,0.00,,,0.00,WUHU216DAVISVP2,2013-05-15 00:17:00,
2013-05-14 19:20:00,71.3,45.7,29.61,WNW,293,7.0,28.0,40,0.00,,,0.00,WUHU216DAVISVP2,2013-05-15 00:20:00,
2013-05-14 19:22:00,71.3,44.9,29.61,WNW,296,6.0,22.0,39,0.00,,,0.00,WUHU216DAVISVP2,2013-05-15 00:22:00,
2013-05-14 19:25:00,71.3,45.1,29.61,WNW,293,7.0,24.0,39,0.00,,,0.00,WUHU216DAVISVP2,2013-05-15 00:25:00,
2013-05-14 19:27:00,71.2,45.5,29.61,NW,316,1.0,24.0,40,0.00,,,0.00,WUHU216DAVISVP2,2013-05-15 00:27:00,
2013-05-14 19:30:00,70.9,45.4,29.61,WNW,293,6.0,24.0,40,0.00,,,0.00,WUHU216DAVISVP2,2013-05-15 00:30:00,
2013-05-14 19:32:00,70.8,45.8,29.62,WSW,246,12.0,24.0,41,0.00,,,0.00,WUHU216DAVISVP2,2013-05-15 00:32:00,
2013-05-14 19:35:00,70.4,45.6,29.62,WNW,293,8.0,24.0,41,0.00,,,0.00,WUHU216DAVISVP2,2013-05-15 00:35:00,
2013-05-14 19:37:00,70.3,46.0,29.62,WSW,246,2.0,19.0,42,0.00,,,0.00,WUHU216DAVISVP2,2013-05-15 00:37:00,
2013-05-14 19:40:00,70.3,46.1,29.62,WNW,293,4.0,20.0,42,0.00,,,0.00,WUHU216DAVISVP2,2013-05-15 00:40:00,
2013-05-14 19:42:00,70.2,45.9,29.62,NW,304,0.0,20.0,42,0.00,,,0.00,WUHU216DAVISVP2,2013-05-15 00:42:00,
2013-05-14 19:45:00,69.9,45.8,29.62,NW,315,6.0,20.0,42,0.00,,,0.00,WUHU216DAVISVP2,2013-05-15 00:45:00,
2013-05-14 19:47:00,69.7,45.5,29.62,NNE,15,2.0,20.0,42,0.00,,,0.00,WUHU216DAVISVP2,2013-05-15 00:47:00,
2013-05-14 19:50:00,69.5,45.4,29.62,WNW,293,4.0,20.0,42,0.00,,,0.00,WUHU216DAVISVP2,2013-05-15 00:50:00,
2013-05-14 19:52:00,69.5,45.9,29.63,NW,308,2.0,15.0,43,0.00,,,0.00,WUHU216DAVISVP2,2013-05-15 00:52:00,
2013-05-14 19:55:00,69.4,45.3,29.63,WNW,293,4.0,15.0,42,0.00,,,0.00,WUHU216DAVISVP2,2013-05-15 00:55:00,
2013-05-14 19:57:00,69.4,45.2,29.63,NW,307,7.0,16.0,42,0.00,,,0.00,WUHU216DAVISVP2,2013-05-15 00:57:00,
2013-05-14 20:00:00,69.3,45.2,29.63,NW,315,5.0,18.0,42,0.00,,,0.00,WUHU216DAVISVP2,2013-05-15 01:00:00,
2013-05-14 20:02:00,69.3,45.1,29.63,West,280,0.0,18.0,42,0.00,,,0.00,WUHU216DAVISVP2,2013-05-15 01:02:00,
2013-05-14 20:05:00,69.2,45.1,29.64,WNW,293,4.0,18.0,42,0.00,,,0.00,WUHU216DAVISVP2,2013-05-15 01:05:00,
2013-05-14 20:07:00,69.1,44.9,29.64,West,267,0.0,18.0,42,0.00,,,0.00,WUHU216DAVISVP2,2013-05-15 01:07:00,
2013-05-14 20:10:00,69.0,44.9,29.64,NW,315,4.0,18.0,42,0.00,,,0.00,WUHU216DAVISVP2,2013-05-15 01:10:00,
2013-05-14 20:12:00,68.9,44.8,29.64,NNW,329,16.0,17.0,42,0.00,,,0.00,WUHU216DAVISVP2,2013-05-15 01:12:00,
2013-05-14 20:15:00,68.8,44.8,29.65,NNW,338,4.0,17.0,42,0.00,,,0.00,WUHU216DAVISVP2,2013-05-15 01:15:00,
2013-05-14 20:17:00,68.7,44.6,29.65,West,275,12.0,16.0,42,0.00,,,0.00,WUHU216DAVISVP2,2013-05-15 01:17:00,
2013-05-14 20:20:00,68.5,44.5,29.65,WNW,293,3.0,17.0,42,0.00,,,0.00,WUHU216DAVISVP2,2013-05-15 01:20:00,
2013-05-14 20:22:00,68.5,44.4,29.65,WNW,290,2.0,15.0,42,0.00,,,0.00,WUHU216DAVISVP2,2013-05-15 01:22:00,
2013-05-14 20:25:00,68.3,44.9,29.65,WNW,293,2.0,16.0,43,0.00,,,0.00,WUHU216DAVISVP2,2013-05-15 01:25:00,
2013-05-14 20:27:00,68.2,44.8,29.65,NW,306,1.0,15.0,43,0.00,,,0.00,WUHU216DAVISVP2,2013-05-15 01:27:00,
2013-05-14 20:30:00,68.0,44.7,29.65,NW,315,2.0,15.0,43,0.00,,,0.00,WUHU216DAVISVP2,2013-05-15 01:30:00,
2013-05-14 20:32:00,67.9,44.5,29.65,North,360,0.0,13.0,43,0.00,,,0.00,WUHU216DAVISVP2,2013-05-15 01:32:00,
2013-05-14 20:35:00,67.6,44.3,29.65,NNW,338,1.0,13.0,43,0.00,,,0.00,WUHU216DAVISVP2,2013-05-15 01:35:00,
2013-05-14 20:37:00,67.5,44.1,29.65,NW,306,1.0,11.0,43,0.00,,,0.00,WUHU216DAVISVP2,2013-05-15 01:37:00,
2013-05-14 20:40:00,67.3,44.6,29.66,NNW,338,1.0,11.0,44,0.00,,,0.00,WUHU216DAVISVP2,2013-05-15 01:40:00,
2013-05-14 20:42:00,67.3,44.6,29.66,WNW,285,0.0,12.0,44,0.00,,,0.00,WUHU216DAVISVP2,2013-05-15 01:42:00,
2013-05-14 20:45:00,67.0,44.4,29.66,NW,315,1.0,12.0,44,0.00,,,0.00,WUHU216DAVISVP2,2013-05-15 01:45:00,
2013-05-14 20:47:00,67.0,44.3,29.66,North,355,4.0,12.0,44,0.00,,,0.00,WUHU216DAVISVP2,2013-05-15 01:47:00,
2013-05-14 20:50:00,66.8,44.2,29.66,NNW,338,1.0,12.0,44,0.00,,,0.00,WUHU216DAVISVP2,2013-05-15 01:50:00,
2013-05-14 20:52:00,66.7,44.0,29.66,NW,306,0.0,5.0,44,0.00,,,0.00,WUHU216DAVISVP2,2013-05-15 01:52:00,
2013-05-14 20:55:00,66.5,44.5,29.66,WNW,293,0.0,12.0,45,0.00,,,0.00,WUHU216DAVISVP2,2013-05-15 01:55:00,
2013-05-14 20:57:00,66.5,44.5,29.66,West,278,0.0,4.0,45,0.00,,,0.00,WUHU216DAVISVP2,2013-05-15 01:57:00,
2013-05-14 21:00:00,66.2,44.2,29.66,West,270,0.0,5.0,45,0.00,,,0.00,WUHU216DAVISVP2,2013-05-15 02:00:00,
2013-05-14 21:02:00,66.1,44.1,29.66,WNW,296,0.0,3.0,45,0.00,,,0.00,WUHU216DAVISVP2,2013-05-15 02:02:00,
2013-05-14 21:05:00,65.8,43.9,29.66,WNW,293,0.0,3.0,45,0.00,,,0.00,WUHU216DAVISVP2,2013-05-15 02:05:00,
2013-05-14 21:07:00,65.8,43.8,29.66,West,263,0.0,2.0,45,0.00,,,0.00,WUHU216DAVISVP2,2013-05-15 02:07:00,
2013-05-14 21:10:00,65.5,44.2,29.67,West,270,0.0,2.0,46,0.00,,,0.00,WUHU216DAVISVP2,2013-05-15 02:10:00,
2013-05-14 21:12:00,65.4,44.0,29.67,WNW,290,0.0,2.0,46,0.00,,,0.00,WUHU216DAVISVP2,2013-05-15 02:12:00,
2013-05-14 21:15:00,65.1,43.8,29.67,WNW,293,0.0,3.0,46,0.00,,,0.00,WUHU216DAVISVP2,2013-05-15 02:15:00,
2013-05-14 21:17:00,64.9,43.6,29.68,WNW,289,0.0,3.0,46,0.00,,,0.00,WUHU216DAVISVP2,2013-05-15 02:17:00,
2013-05-14 21:20:00,64.6,43.9,29.68,WNW,293,0.0,3.0,47,0.00,,,0.00,WUHU216DAVISVP2,2013-05-15 02:20:00,
2013-05-14 21:22:00,64.5,43.8,29.68,WNW,288,0.0,3.0,47,0.00,,,0.00,WUHU216DAVISVP2,2013-05-15 02:22:00,
2013-05-14 21:25:00,64.3,43.6,29.68,North,0,0.0,3.0,47,0.00,,,0.00,WUHU216DAVISVP2,2013-05-15 02:25:00,
2013-05-14 21:27:00,64.2,43.5,29.68,WNW,294,0.0,1.0,47,0.00,,,0.00,WUHU216DAVISVP2,2013-05-15 02:27:00,
2013-05-14 21:30:00,64.1,43.4,29.68,North,0,0.0,1.0,47,0.00,,,0.00,WUHU216DAVISVP2,2013-05-15 02:30:00,
2013-05-14 21:32:00,64.1,44.0,29.69,WNW,296,0.0,0.0,48,0.00,,,0.00,WUHU216DAVISVP2,2013-05-15 02:32:00,
2013-05-14 21:35:00,63.8,43.2,29.69,North,0,0.0,0.0,47,0.00,,,0.00,WUHU216DAVISVP2,2013-05-15 02:35:00,
2013-05-14 21:37:00,63.8,43.7,29.69,WNW,296,0.0,0.0,48,0.00,,,0.00,WUHU216DAVISVP2,2013-05-15 02:37:00,
2013-05-14 21:40:00,63.5,43.4,29.69,North,0,0.0,0.0,48,0.00,,,0.00,WUHU216DAVISVP2,2013-05-15 02:40:00,
2013-05-14 21:42:00,63.4,43.4,29.69,WNW,297,0.0,0.0,48,0.00,,,0.00,WUHU216DAVISVP2,2013-05-15 02:42:00,
2013-05-14 21:45:00,63.2,43.7,29.69,North,0,0.0,0.0,49,0.00,,,0.00,WUHU216DAVISVP2,2013-05-15 02:45:00,
2013-05-14 21:47:00,63.1,43.6,29.69,WNW,297,0.0,0.0,49,0.00,,,0.00,WUHU216DAVISVP2,2013-05-15 02:47:00,
2013-05-14 21:50:00,62.9,43.4,29.69,North,0,0.0,0.0,49,0.00,,,0.00,WUHU216DAVISVP2,2013-05-15 02:50:00,
2013-05-14 21:52:00,62.8,43.4,29.70,WNW,297,0.0,0.0,49,0.00,,,0.00,WUHU216DAVISVP2,2013-05-15 02:52:00,
2013-05-14 21:55:00,62.6,43.2,29.70,North,0,0.0,0.0,49,0.00,,,0.00,WUHU216DAVISVP2,2013-05-15 02:55:00,
2013-05-14 21:57:00,62.5,43.1,29.70,WNW,297,0.0,0.0,49,0.00,,,0.00,WUHU216DAVISVP2,2013-05-15 02:57:00,
2013-05-14 22:00:00,62.3,43.4,29.70,North,0,0.0,0.0,50,0.00,,,0.00,WUHU216DAVISVP2,2013-05-15 03:00:00,
2013-05-14 22:02:00,62.2,43.3,29.70,WNW,297,0.0,0.0,50,0.00,,,0.00,WUHU216DAVISVP2,2013-05-15 03:02:00,
2013-05-14 22:05:00,62.0,43.1,29.71,North,0,0.0,0.0,50,0.00,,,0.00,WUHU216DAVISVP2,2013-05-15 03:05:00,
2013-05-14 22:07:00,61.9,43.1,29.71,WNW,297,0.0,0.0,50,0.00,,,0.00,WUHU216DAVISVP2,2013-05-15 03:07:00,
2013-05-14 22:10:00,61.6,42.8,29.71,North,0,0.0,0.0,50,0.00,,,0.00,WUHU216DAVISVP2,2013-05-15 03:10:00,
2013-05-14 22:12:00,61.5,42.7,29.71,WNW,296,0.0,0.0,50,0.00,,,0.00,WUHU216DAVISVP2,2013-05-15 03:12:00,
2013-05-14 22:15:00,61.3,42.5,29.71,North,0,0.0,0.0,50,0.00,,,0.00,WUHU216DAVISVP2,2013-05-15 03:15:00,
2013-05-14 22:17:00,61.1,42.9,29.71,WNW,296,0.0,0.0,51,0.00,,,0.00,WUHU216DAVISVP2,2013-05-15 03:17:00,
2013-05-14 22:20:00,60.9,42.6,29.72,North,0,0.0,0.0,51,0.00,,,0.00,WUHU216DAVISVP2,2013-05-15 03:20:00,
2013-05-14 22:22:00,60.8,42.6,29.72,WNW,297,0.0,0.0,51,0.00,,,0.00,WUHU216DAVISVP2,2013-05-15 03:22:00,
2013-05-14 22:25:00,60.6,42.9,29.72,North,0,0.0,0.0,52,0.00,,,0.00,WUHU216DAVISVP2,2013-05-15 03:25:00,
2013-05-14 22:27:00,60.5,42.8,29.72,WNW,297,0.0,0.0,52,0.00,,,0.00,WUHU216DAVISVP2,2013-05-15 03:27:00,
2013-05-14 22:30:00,60.3,42.6,29.72,North,0,0.0,0.0,52,0.00,,,0.00,WUHU216DAVISVP2,2013-05-15 03:30:00,
2013-05-14 22:32:00,60.2,42.5,29.72,WNW,296,0.0,0.0,52,0.00,,,0.00,WUHU216DAVISVP2,2013-05-15 03:32:00,
2013-05-14 22:35:00,60.0,42.8,29.72,North,0,0.0,0.0,53,0.00,,,0.00,WUHU216DAVISVP2,2013-05-15 03:35:00,
2013-05-14 22:37:00,60.0,42.9,29.72,WNW,297,0.0,0.0,53,0.00,,,0.00,WUHU216DAVISVP2,2013-05-15 03:37:00,
2013-05-14 22:40:00,59.9,42.7,29.72,North,0,0.0,0.0,53,0.00,,,0.00,WUHU216DAVISVP2,2013-05-15 03:40:00,
2013-05-14 22:42:00,59.8,42.7,29.72,WNW,297,0.0,0.0,53,0.00,,,0.00,WUHU216DAVISVP2,2013-05-15 03:42:00,
2013-05-14 22:45:00,59.7,43.0,29.72,North,0,0.0,0.0,54,0.00,,,0.00,WUHU216DAVISVP2,2013-05-15 03:45:00,
2013-05-14 22:47:00,59.7,43.1,29.72,WNW,296,0.0,0.0,54,0.00,,,0.00,WUHU216DAVISVP2,2013-05-15 03:47:00,
2013-05-14 22:50:00,59.5,42.8,29.72,North,0,0.0,0.0,54,0.00,,,0.00,WUHU216DAVISVP2,2013-05-15 03:50:00,
2013-05-14 22:52:00,59.5,42.9,29.72,WNW,296,0.0,0.0,54,0.00,,,0.00,WUHU216DAVISVP2,2013-05-15 03:52:00,
2013-05-14 22:55:00,59.3,42.6,29.72,North,0,0.0,0.0,54,0.00,,,0.00,WUHU216DAVISVP2,2013-05-15 03:55:00,
2013-05-14 22:57:00,59.2,42.6,29.73,WNW,297,0.0,0.0,54,0.00,,,0.00,WUHU216DAVISVP2,2013-05-15 03:57:00,
2013-05-14 23:00:00,59.0,42.8,29.73,North,0,0.0,0.0,55,0.00,,,0.00,WUHU216DAVISVP2,2013-05-15 04:00:00,
2013-05-14 23:01:00,59.0,42.9,29.73,WNW,297,0.0,0.0,55,0.00,,,0.00,WUHU216DAVISVP2,2013-05-15 04:01:00,
2013-05-14 23:05:00,59.0,42.8,29.73,North,0,0.0,0.0,55,0.00,,,0.00,WUHU216DAVISVP2,2013-05-15 04:05:00,
2013-05-14 23:06:00,59.0,42.9,29.73,WNW,297,0.0,0.0,55,0.00,,,0.00,WUHU216DAVISVP2,2013-05-15 04:06:00,
2013-05-14 23:10:00,58.9,43.2,29.73,North,0,0.0,0.0,56,0.00,,,0.00,WUHU216DAVISVP2,2013-05-15 04:10:00,
2013-05-14 23:11:00,58.8,43.2,29.73,WNW,296,0.0,0.0,56,0.00,,,0.00,WUHU216DAVISVP2,2013-05-15 04:11:00,
2013-05-14 23:15:00,58.6,42.9,29.73,North,0,0.0,0.0,56,0.00,,,0.00,WUHU216DAVISVP2,2013-05-15 04:15:00,
2013-05-14 23:16:00,58.5,42.9,29.73,WNW,297,0.0,0.0,56,0.00,,,0.00,WUHU216DAVISVP2,2013-05-15 04:16:00,
2013-05-14 23:20:00,58.3,42.7,29.73,North,0,0.0,0.0,56,0.00,,,0.00,WUHU216DAVISVP2,2013-05-15 04:20:00,
2013-05-14 23:21:00,58.3,42.8,29.73,WNW,297,0.0,0.0,56,0.00,,,0.00,WUHU216DAVISVP2,2013-05-15 04:21:00,
2013-05-14 23:25:00,58.0,42.8,29.73,North,0,0.0,0.0,57,0.00,,,0.00,WUHU216DAVISVP2,2013-05-15 04:25:00,
2013-05-14 23:26:00,58.0,42.9,29.73,WNW,297,0.0,0.0,57,0.00,,,0.00,WUHU216DAVISVP2,2013-05-15 04:26:00,
2013-05-14 23:30:00,57.8,42.7,29.73,North,0,0.0,0.0,57,0.00,,,0.00,WUHU216DAVISVP2,2013-05-15 04:30:00,
2013-05-14 23:31:00,57.8,42.8,29.73,WNW,297,0.0,0.0,57,0.00,,,0.00,WUHU216DAVISVP2,2013-05-15 04:31:00,
2013-05-14 23:35:00,57.6,42.5,29.73,North,0,0.0,0.0,57,0.00,,,0.00,WUHU216DAVISVP2,2013-05-15 04:35:00,
2013-05-14 23:36:00,57.6,42.6,29.73,WNW,297,0.0,0.0,57,0.00,,,0.00,WUHU216DAVISVP2,2013-05-15 04:36:00,
2013-05-14 23:40:00,57.5,42.8,29.74,North,0,0.0,0.0,58,0.00,,,0.00,WUHU216DAVISVP2,2013-05-15 04:40:00,
2013-05-14 23:41:00,57.4,42.8,29.74,WNW,297,0.0,0.0,58,0.00,,,0.00,WUHU216DAVISVP2,2013-05-15 04:41:00,
2013-05-14 23:45:00,57.3,42.6,29.74,North,0,0.0,0.0,58,0.00,,,0.00,WUHU216DAVISVP2,2013-05-15 04:45:00,
2013-05-14 23:46:00,57.3,42.7,29.74,WNW,297,0.0,0.0,58,0.00,,,0.00,WUHU216DAVISVP2,2013-05-15 04:46:00,
2013-05-14 23:50:00,57.0,42.4,29.74,North,0,0.0,0.0,58,0.00,,,0.00,WUHU216DAVISVP2,2013-05-15 04:50:00,
2013-05-14 23:51:00,57.0,42.5,29.74,WNW,297,0.0,0.0,58,0.00,,,0.00,WUHU216DAVISVP2,2013-05-15 04:51:00,
2013-05-14 23:55:00,56.8,42.6,29.74,North,0,0.0,0.0,59,0.00,,,0.00,WUHU216DAVISVP2,2013-05-15 04:55:00,
2013-05-14 23:56:00,56.8,42.7,29.74,WNW,297,0.0,0.0,59,0.00,,,0.00,WUHU216DAVISVP2,2013-05-15 04:56:00,